KLM743 EHAM-SPJC

Flight info

Callsign KLM743
Flight time N/A
Altitude 32000
Route IDRID L980 MANGO L620 SAM/N0493F330 M195 LORKU DCT EBOMO DCT KORUL DCT RIPEL DCT GUNTI/M086F340 DCT 35N020W 32N025W 29N030W 23N040W/M086F360 19N045W DCT QUETN/N0505F360 DCT 14N050W 10N055W DCT TRAPP UM527 UMREM/N0496F380 UM527 VADOS
Aircraft B789/H-SDE1E2E3FGHIJ2J3J4J5M1RWXY/LB1D1

Departure

Time N/A
Airport Amsterdam Airport Schiphol (EHAM)

Arrival

Time 2026-04-27 07:25
Airport Jorge Chávez International Airport (SPJC)
Time Latitude Longitude Altitude Speed Heading
2026-04-26 18:48 52.10606 3.72234 22574 ft 425 kts 234°
2026-04-26 18:48 52.08777 3.68456 22984 ft 427 kts 235°
2026-04-26 18:48 52.06931 3.64648 23401 ft 429 kts 234°
2026-04-26 18:49 52.05082 3.60841 23772 ft 432 kts 234°
2026-04-26 18:49 52.03213 3.56998 24177 ft 434 kts 234°
2026-04-26 18:49 52.01337 3.53145 24533 ft 436 kts 235°
2026-04-26 18:49 51.99457 3.49273 24890 ft 437 kts 237°
2026-04-26 18:50 51.97671 3.45254 25160 ft 440 kts 237°
2026-04-26 18:50 51.95850 3.41254 25533 ft 442 kts 236°
2026-04-26 18:50 51.94038 3.37284 25827 ft 444 kts 237°
2026-04-26 18:50 51.92209 3.33235 26152 ft 445 kts 237°
2026-04-26 18:51 51.90374 3.29167 26450 ft 448 kts 237°
2026-04-26 18:51 51.88524 3.25098 26756 ft 449 kts 237°
2026-04-26 18:51 51.86729 3.20950 27038 ft 448 kts 244°
2026-04-26 18:51 51.85405 3.16406 27314 ft 446 kts 253°
2026-04-26 18:52 51.84605 3.11580 27603 ft 443 kts 263°
2026-04-26 18:52 51.84240 3.06618 27811 ft 444 kts 265°
2026-04-26 18:52 51.83908 3.01648 28075 ft 446 kts 266°
2026-04-26 18:52 51.83587 2.96655 28381 ft 446 kts 266°
2026-04-26 18:53 51.83263 2.91653 28614 ft 448 kts 265°
2026-04-26 18:53 51.82933 2.86689 28896 ft 449 kts 265°
2026-04-26 18:53 51.82594 2.81661 29120 ft 450 kts 265°
2026-04-26 18:53 51.82256 2.76624 29369 ft 451 kts 265°
2026-04-26 18:54 51.81913 2.71518 29607 ft 452 kts 265°
2026-04-26 18:54 51.81573 2.66523 29813 ft 453 kts 265°
2026-04-26 18:54 51.81225 2.61462 30066 ft 453 kts 265°
2026-04-26 18:54 51.80874 2.56389 30251 ft 455 kts 265°
2026-04-26 18:55 51.80519 2.51305 30455 ft 456 kts 265°
2026-04-26 18:55 51.80162 2.46195 30640 ft 457 kts 265°
2026-04-26 18:55 51.79802 2.41077 30815 ft 459 kts 265°
2026-04-26 18:55 51.79437 2.35946 30966 ft 461 kts 265°
2026-04-26 18:56 51.79070 2.30806 31209 ft 460 kts 265°
2026-04-26 18:56 51.78703 2.25682 31495 ft 459 kts 265°
2026-04-26 18:56 51.78364 2.20555 31696 ft 458 kts 266°
2026-04-26 18:56 51.78081 2.15434 31890 ft 458 kts 265°
2026-04-26 18:57 51.77760 2.10305 32066 ft 459 kts 265°
2026-04-26 18:57 51.77550 2.06908 32134 ft 460 kts 265°
2026-04-26 18:57 51.77146 2.00016 32304 ft 462 kts 266°
2026-04-26 18:57 51.76843 1.94841 32300 ft 464 kts 265°
2026-04-26 18:58 51.76208 1.84503 32295 ft 461 kts 265°
2026-04-26 18:58 51.75578 1.74225 32294 ft 460 kts 265°
2026-04-26 18:59 51.74937 1.64003 32295 ft 460 kts 265°
2026-04-26 18:59 51.74285 1.53708 32299 ft 462 kts 265°
2026-04-26 19:00 51.73621 1.43384 32302 ft 462 kts 265°
2026-04-26 19:00 51.72948 1.33063 32300 ft 462 kts 265°
2026-04-26 19:01 51.72267 1.22758 32300 ft 463 kts 265°
2026-04-26 19:01 51.71576 1.12432 32308 ft 463 kts 265°
2026-04-26 19:02 51.70874 1.02100 32310 ft 464 kts 264°
2026-04-26 19:02 51.70404 0.95252 32310 ft 463 kts 264°
2026-04-26 19:03 51.69296 0.81475 32326 ft 464 kts 255°
2026-04-26 19:03 51.68159 0.76679 32338 ft 466 kts 243°
2026-04-26 19:03 51.66421 0.72249 32366 ft 470 kts 236°
2026-04-26 19:04 51.64447 0.68024 32525 ft 471 kts 234°
2026-04-26 19:04 51.62488 0.63801 32754 ft 470 kts 236°
2026-04-26 19:04 51.60627 0.59477 32950 ft 469 kts 237°
2026-04-26 19:04 51.58779 0.55167 33188 ft 469 kts 236°
2026-04-26 19:05 51.55593 0.48088 33541 ft 468 kts 236°
2026-04-26 19:05 51.53692 0.43840 33700 ft 469 kts 236°
2026-04-26 19:05 51.51809 0.39566 33863 ft 469 kts 236°
2026-04-26 19:06 51.49915 0.35298 34069 ft 469 kts 236°
2026-04-26 19:06 51.48011 0.31063 34280 ft 468 kts 236°
2026-04-26 19:06 51.46113 0.26836 34447 ft 468 kts 236°
2026-04-26 19:06 51.44213 0.22590 34629 ft 468 kts 236°
2026-04-26 19:07 51.42311 0.18345 34790 ft 468 kts 236°
2026-04-26 19:07 51.40406 0.14114 34984 ft 468 kts 236°
2026-04-26 19:07 51.38498 0.09888 35175 ft 468 kts 236°
2026-04-26 19:07 51.36618 0.05722 35340 ft 467 kts 236°
2026-04-26 19:08 51.34716 0.01509 35520 ft 467 kts 236°
2026-04-26 19:08 51.32814 -0.02692 35690 ft 467 kts 236°
2026-04-26 19:08 51.30914 -0.06877 36079 ft 461 kts 236°
2026-04-26 19:08 51.29034 -0.11015 36290 ft 460 kts 235°
2026-04-26 19:09 51.27145 -0.15169 36375 ft 461 kts 235°
2026-04-26 19:09 51.25257 -0.19314 36520 ft 461 kts 235°
2026-04-26 19:09 51.23366 -0.23453 36693 ft 461 kts 235°
2026-04-26 19:09 51.21485 -0.27564 37007 ft 456 kts 235°
2026-04-26 19:10 51.19625 -0.31629 37262 ft 452 kts 235°
2026-04-26 19:10 51.15904 -0.39739 37421 ft 453 kts 235°
2026-04-26 19:11 51.12174 -0.47839 37613 ft 453 kts 235°
2026-04-26 19:11 51.08437 -0.55932 37787 ft 454 kts 235°
2026-04-26 19:12 51.05303 -0.64572 37913 ft 451 kts 252°
2026-04-26 19:12 51.03817 -0.74254 37998 ft 452 kts 258°
2026-04-26 19:13 51.02497 -0.84020 38160 ft 453 kts 258°
2026-04-26 19:13 51.01172 -0.93751 38262 ft 454 kts 258°
2026-04-26 19:14 50.99829 -1.03546 38264 ft 454 kts 258°
2026-04-26 19:14 50.98478 -1.13341 38262 ft 453 kts 258°
2026-04-26 19:15 50.97121 -1.23104 38258 ft 452 kts 257°
2026-04-26 19:15 50.94777 -1.32294 38299 ft 453 kts 237°
2026-04-26 19:16 50.90495 -1.39673 38298 ft 460 kts 217°
2026-04-26 19:16 50.85160 -1.45312 38275 ft 462 kts 216°
2026-04-26 19:17 50.79823 -1.50840 38270 ft 461 kts 215°
2026-04-26 19:17 50.74453 -1.56401 38277 ft 462 kts 215°
2026-04-26 19:18 50.69065 -1.61960 38274 ft 462 kts 215°
2026-04-26 19:18 50.63676 -1.67504 38277 ft 461 kts 215°
2026-04-26 19:19 50.58310 -1.73012 38273 ft 461 kts 215°
2026-04-26 19:19 50.52931 -1.78516 38272 ft 460 kts 215°
2026-04-26 19:20 50.47555 -1.84004 38265 ft 461 kts 215°
2026-04-26 19:20 50.42198 -1.89453 38267 ft 462 kts 215°
2026-04-26 19:21 50.36792 -1.94941 38269 ft 463 kts 215°
2026-04-26 19:21 50.31372 -2.00428 38266 ft 463 kts 215°
2026-04-26 19:22 50.25974 -2.05874 38257 ft 460 kts 215°
2026-04-26 19:22 50.20573 -2.11224 38248 ft 460 kts 213°
2026-04-26 19:23 50.15118 -2.16486 38250 ft 461 kts 214°
2026-04-26 19:23 50.09669 -2.21811 38250 ft 463 kts 214°
2026-04-26 19:24 50.04197 -2.27095 38249 ft 463 kts 214°
2026-04-26 19:24 49.96006 -2.35012 38248 ft 462 kts 214°
2026-04-26 19:25 49.91463 -2.39383 38246 ft 462 kts 214°
2026-04-26 19:25 49.85128 -2.45482 38246 ft 461 kts 214°
2026-04-26 19:26 49.79683 -2.50702 38242 ft 460 kts 214°
2026-04-26 19:26 49.74241 -2.55909 38234 ft 460 kts 213°
2026-04-26 19:27 49.68796 -2.61100 38242 ft 460 kts 213°
2026-04-26 19:27 49.63357 -2.66274 38241 ft 459 kts 213°
2026-04-26 19:28 49.57915 -2.71439 38232 ft 458 kts 213°
2026-04-26 19:28 49.52481 -2.76580 38228 ft 458 kts 213°
2026-04-26 19:29 49.47042 -2.81715 38243 ft 459 kts 213°
2026-04-26 19:29 49.41592 -2.86842 38247 ft 459 kts 213°
2026-04-26 19:30 49.36147 -2.91956 38249 ft 459 kts 213°
2026-04-26 19:30 49.31619 -2.96197 38249 ft 458 kts 213°
2026-04-26 19:31 49.25252 -3.02143 38225 ft 459 kts 213°
2026-04-26 19:31 49.19796 -3.07227 38228 ft 459 kts 213°
2026-04-26 19:32 49.14353 -3.12285 38226 ft 458 kts 213°
2026-04-26 19:32 49.08938 -3.17300 38226 ft 457 kts 213°
2026-04-26 19:33 49.03507 -3.22322 38228 ft 456 kts 213°
2026-04-26 19:33 48.98062 -3.27340 38232 ft 457 kts 213°
2026-04-26 19:34 48.92610 -3.32353 38224 ft 458 kts 213°
2026-04-26 19:34 48.87145 -3.37365 38219 ft 459 kts 213°
2026-04-26 19:35 48.81669 -3.42372 38222 ft 459 kts 212°
2026-04-26 19:35 48.76205 -3.47360 38222 ft 457 kts 212°
2026-04-26 19:36 48.71675 -3.51482 38214 ft 457 kts 212°
2026-04-26 19:36 48.65307 -3.57265 38210 ft 457 kts 212°
2026-04-26 19:37 48.59892 -3.62166 38220 ft 457 kts 212°
2026-04-26 19:37 48.54437 -3.67092 38215 ft 456 kts 212°
2026-04-26 19:38 48.48989 -3.72002 38211 ft 455 kts 212°
2026-04-26 19:38 48.43550 -3.76888 38210 ft 456 kts 212°
2026-04-26 19:39 48.38097 -3.81777 38220 ft 457 kts 212°
2026-04-26 19:39 48.32625 -3.86668 38225 ft 457 kts 212°
2026-04-26 19:40 48.27146 -3.91554 38225 ft 458 kts 212°
2026-04-26 19:40 48.21674 -3.96422 38219 ft 456 kts 212°
2026-04-26 19:41 48.16247 -4.01236 38215 ft 456 kts 212°
2026-04-26 19:41 48.12595 -4.04470 38219 ft 456 kts 212°
2026-04-26 19:42 48.05322 -4.10895 38222 ft 456 kts 212°
2026-04-26 19:42 47.99861 -4.15705 38214 ft 456 kts 212°
2026-04-26 19:43 47.94387 -4.20513 38216 ft 456 kts 212°
2026-04-26 19:43 47.88911 -4.25315 38220 ft 457 kts 212°
2026-04-26 19:44 47.83422 -4.30109 38220 ft 457 kts 212°
2026-04-26 19:44 47.78054 -4.35071 38217 ft 457 kts 213°
2026-04-26 19:45 47.72660 -4.40023 38216 ft 455 kts 213°
2026-04-26 19:45 47.67299 -4.45024 38213 ft 455 kts 213°
2026-04-26 19:46 47.61930 -4.49971 38220 ft 454 kts 213°
2026-04-26 19:46 47.56568 -4.54925 38211 ft 454 kts 213°
2026-04-26 19:47 47.52984 -4.58223 38213 ft 453 kts 213°
2026-04-26 19:47 47.45856 -4.64766 38213 ft 454 kts 213°
2026-04-26 19:48 47.40489 -4.69680 38215 ft 454 kts 213°
2026-04-26 19:48 47.35125 -4.74579 38223 ft 453 kts 213°
2026-04-26 19:49 47.29773 -4.79453 38218 ft 452 kts 213°
2026-04-26 19:49 47.24448 -4.84298 38219 ft 453 kts 213°
2026-04-26 19:50 47.19078 -4.89164 38219 ft 453 kts 213°
2026-04-26 19:50 47.13717 -4.94016 38216 ft 451 kts 213°
2026-04-26 19:51 47.08367 -4.98842 38212 ft 450 kts 213°
2026-04-26 19:51 47.03024 -5.03654 38220 ft 451 kts 213°
2026-04-26 19:52 46.98576 -5.07651 38215 ft 451 kts 213°
2026-04-26 19:52 46.93213 -5.12457 38222 ft 451 kts 213°
2026-04-26 19:53 46.87865 -5.17236 38217 ft 450 kts 213°
2026-04-26 19:53 46.82515 -5.22013 38218 ft 451 kts 213°
2026-04-26 19:54 46.77198 -5.26749 38225 ft 451 kts 213°
2026-04-26 19:54 46.71840 -5.31499 38226 ft 450 kts 213°
2026-04-26 19:55 46.66490 -5.36244 38217 ft 449 kts 213°
2026-04-26 19:55 46.61153 -5.40957 38216 ft 448 kts 213°
2026-04-26 19:56 46.55822 -5.45661 38213 ft 448 kts 213°
2026-04-26 19:56 46.50487 -5.50351 38220 ft 448 kts 213°
2026-04-26 19:57 46.45151 -5.55034 38219 ft 448 kts 213°
2026-04-26 19:57 46.39824 -5.59701 38215 ft 447 kts 213°
2026-04-26 19:58 46.34504 -5.64346 38212 ft 445 kts 213°
2026-04-26 19:58 46.29243 -5.68935 38219 ft 445 kts 213°
2026-04-26 19:59 46.23913 -5.73568 38217 ft 446 kts 213°
2026-04-26 19:59 46.18587 -5.78191 38228 ft 446 kts 213°
2026-04-26 20:00 46.13274 -5.82788 38222 ft 445 kts 213°
2026-04-26 20:00 46.07963 -5.87377 38218 ft 444 kts 213°
2026-04-26 20:01 46.02658 -5.91948 38216 ft 445 kts 213°
2026-04-26 20:01 45.97377 -5.96488 38218 ft 446 kts 213°
2026-04-26 20:02 45.92043 -6.01065 38219 ft 447 kts 213°
2026-04-26 20:02 45.87605 -6.04864 38209 ft 447 kts 213°
2026-04-26 20:03 45.81355 -6.10202 38214 ft 446 kts 213°
2026-04-26 20:03 45.76030 -6.14739 38208 ft 444 kts 213°
2026-04-26 20:04 45.70713 -6.19259 38206 ft 444 kts 213°
2026-04-26 20:04 45.65393 -6.23772 38207 ft 446 kts 213°
2026-04-26 20:05 45.60073 -6.28275 38206 ft 448 kts 213°
2026-04-26 20:05 45.54688 -6.32821 38211 ft 448 kts 213°
2026-04-26 20:06 45.49324 -6.37340 38214 ft 446 kts 213°
2026-04-26 20:06 45.43979 -6.41835 38205 ft 446 kts 213°
2026-04-26 20:07 45.38621 -6.46330 38206 ft 448 kts 212°
2026-04-26 20:07 45.33274 -6.50804 38211 ft 449 kts 212°
2026-04-26 20:08 45.27886 -6.55304 38209 ft 449 kts 212°
2026-04-26 20:08 45.22480 -6.59809 38212 ft 451 kts 212°
2026-04-26 20:09 45.17067 -6.64308 38210 ft 450 kts 212°
2026-04-26 20:09 45.11667 -6.68791 38208 ft 449 kts 212°
2026-04-26 20:10 45.06268 -6.73256 38204 ft 449 kts 212°
2026-04-26 20:10 45.00883 -6.77706 38205 ft 449 kts 212°
2026-04-26 20:11 44.95509 -6.82130 38207 ft 450 kts 212°
2026-04-26 20:12 44.87379 -6.88816 38206 ft 451 kts 212°
2026-04-26 20:12 44.82356 -6.93986 38223 ft 446 kts 228°
2026-04-26 20:13 44.78261 -7.00562 38209 ft 447 kts 230°
2026-04-26 20:13 44.74213 -7.07183 38214 ft 446 kts 230°
2026-04-26 20:14 44.70161 -7.13753 38209 ft 444 kts 230°
2026-04-26 20:14 44.66111 -7.20329 38214 ft 445 kts 230°
2026-04-26 20:15 44.62083 -7.26846 38208 ft 444 kts 230°
2026-04-26 20:15 44.58036 -7.33379 38213 ft 443 kts 230°
2026-04-26 20:16 44.53983 -7.39906 38208 ft 442 kts 230°
2026-04-26 20:16 44.49945 -7.46395 38210 ft 441 kts 230°
2026-04-26 20:17 44.45903 -7.52878 38212 ft 442 kts 230°
2026-04-26 20:17 44.41854 -7.59351 38211 ft 441 kts 230°
2026-04-26 20:18 44.37816 -7.65799 38217 ft 441 kts 230°
2026-04-26 20:18 44.33773 -7.72232 38200 ft 440 kts 230°
2026-04-26 20:19 44.29735 -7.78651 38199 ft 439 kts 230°
2026-04-26 20:19 44.25717 -7.85018 38201 ft 440 kts 230°
2026-04-26 20:20 44.21669 -7.91421 38203 ft 440 kts 230°
2026-04-26 20:20 44.17618 -7.97813 38203 ft 439 kts 230°
2026-04-26 20:21 44.13566 -8.04195 38203 ft 440 kts 230°
2026-04-26 20:21 44.09500 -8.10579 38203 ft 441 kts 230°
2026-04-26 20:22 44.05449 -8.16931 38205 ft 442 kts 230°
2026-04-26 20:22 44.01360 -8.23321 38198 ft 441 kts 230°
2026-04-26 20:23 43.97293 -8.29672 38198 ft 440 kts 230°
2026-04-26 20:23 43.93215 -8.36019 38194 ft 441 kts 230°
2026-04-26 20:24 43.89129 -8.42370 38180 ft 441 kts 230°
2026-04-26 20:24 43.85031 -8.48715 38179 ft 441 kts 230°
2026-04-26 20:25 43.80940 -8.55047 38177 ft 441 kts 230°
2026-04-26 20:25 43.76852 -8.61352 38181 ft 443 kts 229°
2026-04-26 20:26 43.72728 -8.67702 38188 ft 444 kts 230°
2026-04-26 20:26 43.68587 -8.74064 38188 ft 445 kts 229°
2026-04-26 20:27 43.64437 -8.80422 38187 ft 444 kts 229°
2026-04-26 20:27 43.60307 -8.86744 38186 ft 443 kts 229°
2026-04-26 20:28 43.56173 -8.93047 38182 ft 443 kts 229°
2026-04-26 20:28 43.52022 -8.99372 38186 ft 445 kts 229°
2026-04-26 20:29 43.47860 -9.05689 38188 ft 446 kts 229°
2026-04-26 20:29 43.43697 -9.12006 38189 ft 445 kts 229°
2026-04-26 20:30 43.39552 -9.18273 38189 ft 445 kts 229°
2026-04-26 20:30 43.35387 -9.24561 38188 ft 445 kts 229°
2026-04-26 20:31 43.31212 -9.30846 38189 ft 445 kts 229°
2026-04-26 20:31 43.27044 -9.37108 38186 ft 444 kts 229°
2026-04-26 20:32 43.22874 -9.43360 38181 ft 444 kts 229°
2026-04-26 20:32 43.18688 -9.49625 38187 ft 447 kts 229°
2026-04-26 20:33 43.14483 -9.55901 38184 ft 447 kts 229°
2026-04-26 20:33 43.10273 -9.62171 38173 ft 447 kts 229°
2026-04-26 20:34 43.06062 -9.68430 38170 ft 447 kts 229°
2026-04-26 20:34 43.01843 -9.74687 38176 ft 448 kts 229°
2026-04-26 20:35 42.97602 -9.80965 38176 ft 449 kts 229°
2026-04-26 20:35 42.93393 -9.87176 38177 ft 448 kts 229°
2026-04-26 20:36 42.89123 -9.93469 38155 ft 449 kts 229°
2026-04-26 20:36 42.84904 -9.99671 38125 ft 449 kts 229°
2026-04-26 20:37 42.80648 -10.05915 38126 ft 450 kts 229°
2026-04-26 20:37 42.76378 -10.12164 38129 ft 451 kts 229°
2026-04-26 20:38 42.72091 -10.18427 38131 ft 451 kts 228°
2026-04-26 20:38 42.67812 -10.24661 38128 ft 450 kts 228°
2026-04-26 20:39 42.63536 -10.30881 38127 ft 451 kts 228°
2026-04-26 20:39 42.59269 -10.37072 38128 ft 452 kts 228°
2026-04-26 20:40 42.54963 -10.43307 38133 ft 453 kts 228°
2026-04-26 20:40 42.51381 -10.48487 38130 ft 454 kts 228°
2026-04-26 20:41 42.47065 -10.54706 38129 ft 452 kts 228°
2026-04-26 20:41 42.42764 -10.60900 38125 ft 451 kts 228°
2026-04-26 20:42 42.38467 -10.67070 38121 ft 450 kts 228°
2026-04-26 20:42 42.34165 -10.73234 38123 ft 450 kts 228°
2026-04-26 20:43 42.29864 -10.79385 38121 ft 450 kts 228°
2026-04-26 20:43 42.25505 -10.85397 38130 ft 451 kts 227°
2026-04-26 20:44 42.21118 -10.91477 38115 ft 454 kts 227°
2026-04-26 20:44 42.16678 -10.97498 38110 ft 451 kts 227°
2026-04-26 20:45 42.12272 -11.03525 38109 ft 450 kts 227°
2026-04-26 20:45 42.07860 -11.09513 38103 ft 450 kts 227°
2026-04-26 20:46 42.03454 -11.15495 38103 ft 450 kts 227°
2026-04-26 20:46 41.99059 -11.21446 38109 ft 451 kts 227°
2026-04-26 20:47 41.94613 -11.27452 38109 ft 454 kts 227°
2026-04-26 20:47 41.90154 -11.33466 38108 ft 454 kts 227°
2026-04-26 20:48 41.85692 -11.39467 38110 ft 454 kts 227°
2026-04-26 20:48 41.81244 -11.45439 38109 ft 451 kts 227°
2026-04-26 20:49 41.76806 -11.51388 38108 ft 451 kts 227°
2026-04-26 20:49 41.72368 -11.57319 38103 ft 451 kts 227°
2026-04-26 20:50 41.67917 -11.63259 38109 ft 452 kts 226°
2026-04-26 20:50 41.63464 -11.69190 38108 ft 452 kts 227°
2026-04-26 20:51 41.59029 -11.75082 38111 ft 453 kts 226°
2026-04-26 20:51 41.54557 -11.81014 38114 ft 453 kts 226°
2026-04-26 20:52 41.50079 -11.86940 38110 ft 454 kts 226°
2026-04-26 20:52 41.45587 -11.92873 38111 ft 455 kts 226°
2026-04-26 20:53 41.41094 -11.98793 38109 ft 454 kts 226°
2026-04-26 20:53 41.36617 -12.04681 38107 ft 452 kts 226°
2026-04-26 20:54 41.32137 -12.10563 38105 ft 453 kts 226°
2026-04-26 20:54 41.27643 -12.16447 38107 ft 454 kts 226°
2026-04-26 20:55 41.23135 -12.22341 38109 ft 455 kts 226°
2026-04-26 20:55 41.18612 -12.28242 38109 ft 456 kts 226°
2026-04-26 20:56 41.14103 -12.34112 38113 ft 457 kts 226°
2026-04-26 20:56 41.09565 -12.40009 38107 ft 457 kts 226°
2026-04-26 20:57 41.05021 -12.45897 38099 ft 458 kts 226°
2026-04-26 20:57 41.00465 -12.51794 38100 ft 458 kts 226°
2026-04-26 20:58 40.95906 -12.57681 38098 ft 457 kts 225°
2026-04-26 20:58 40.91344 -12.63561 38095 ft 458 kts 225°
2026-04-26 20:59 40.86771 -12.69439 38097 ft 459 kts 225°
2026-04-26 20:59 40.82195 -12.75314 38082 ft 459 kts 225°
2026-04-26 21:00 40.77611 -12.81183 38080 ft 458 kts 225°
2026-04-26 21:00 40.73026 -12.87046 38081 ft 459 kts 225°
2026-04-26 21:01 40.68463 -12.92866 38089 ft 460 kts 225°
2026-04-26 21:01 40.63866 -12.98718 38092 ft 460 kts 225°
2026-04-26 21:02 40.59246 -13.04588 38094 ft 461 kts 225°
2026-04-26 21:02 40.54620 -13.10453 38087 ft 461 kts 225°
2026-04-26 21:03 40.50002 -13.16295 38080 ft 460 kts 225°
2026-04-26 21:03 40.45388 -13.22124 38078 ft 460 kts 225°
2026-04-26 21:04 40.40776 -13.27936 38078 ft 460 kts 225°
2026-04-26 21:04 40.36152 -13.33751 38078 ft 461 kts 225°
2026-04-26 21:05 40.31518 -13.39569 38081 ft 461 kts 225°
2026-04-26 21:05 40.26912 -13.45339 38077 ft 460 kts 224°
2026-04-26 21:06 40.22276 -13.51134 38075 ft 460 kts 224°
2026-04-26 21:06 40.17646 -13.56912 38078 ft 460 kts 224°
2026-04-26 21:07 40.12997 -13.62702 38080 ft 463 kts 224°
2026-04-26 21:07 40.08314 -13.68522 38093 ft 465 kts 224°
2026-04-26 21:08 40.03624 -13.74339 38094 ft 465 kts 224°
2026-04-26 21:08 39.98924 -13.80156 38093 ft 466 kts 224°
2026-04-26 21:09 39.94257 -13.85923 38092 ft 465 kts 224°
2026-04-26 21:09 39.89560 -13.91713 38090 ft 464 kts 224°
2026-04-26 21:10 39.84871 -13.97483 38079 ft 463 kts 224°
2026-04-26 21:10 39.80194 -14.03226 38076 ft 462 kts 224°
2026-04-26 21:11 39.75504 -14.08975 38078 ft 464 kts 224°
2026-04-26 21:11 39.70797 -14.14733 38082 ft 465 kts 224°
2026-04-26 21:12 39.66105 -14.20462 38094 ft 465 kts 224°
2026-04-26 21:12 39.61382 -14.26216 38091 ft 466 kts 224°
2026-04-26 21:13 39.56645 -14.31977 38092 ft 467 kts 224°
2026-04-26 21:13 39.51904 -14.37731 38093 ft 466 kts 223°
2026-04-26 21:14 39.47182 -14.43451 38082 ft 465 kts 223°
2026-04-26 21:14 39.42457 -14.49163 38091 ft 465 kts 223°
2026-04-26 21:15 39.37715 -14.54885 38103 ft 467 kts 223°
2026-04-26 21:15 39.32950 -14.60623 38105 ft 468 kts 223°
2026-04-26 21:16 39.28226 -14.66301 38099 ft 466 kts 223°
2026-04-26 21:16 39.23476 -14.72000 38103 ft 467 kts 223°
2026-04-26 21:17 39.18710 -14.77705 38099 ft 468 kts 223°
2026-04-26 21:17 39.13933 -14.83410 38105 ft 468 kts 223°
2026-04-26 21:18 39.09153 -14.89115 38107 ft 469 kts 223°
2026-04-26 21:18 39.04368 -14.94809 38106 ft 468 kts 223°
2026-04-26 21:19 38.99610 -15.00515 38110 ft 466 kts 227°
2026-04-26 21:19 38.95178 -15.06537 38107 ft 468 kts 226°
2026-04-26 21:20 38.90677 -15.12598 38110 ft 470 kts 226°
2026-04-26 21:20 38.86171 -15.18687 38082 ft 469 kts 226°
2026-04-26 21:21 38.81679 -15.24723 38092 ft 468 kts 226°
2026-04-26 21:21 38.77191 -15.30755 38084 ft 467 kts 226°
2026-04-26 21:22 38.72692 -15.36782 38092 ft 467 kts 226°
2026-04-26 21:22 38.68184 -15.42814 38094 ft 468 kts 226°
2026-04-26 21:23 38.61395 -15.51873 38095 ft 471 kts 226°
2026-04-26 21:23 38.56890 -15.57870 38093 ft 470 kts 225°
2026-04-26 21:24 38.52355 -15.63895 38096 ft 471 kts 225°
2026-04-26 21:24 38.47812 -15.69921 38101 ft 471 kts 225°
2026-04-26 21:25 38.43255 -15.75951 38103 ft 472 kts 225°
2026-04-26 21:25 38.38690 -15.81983 38098 ft 471 kts 225°
2026-04-26 21:26 38.34142 -15.87978 38096 ft 470 kts 225°
2026-04-26 21:26 38.29627 -15.93918 38095 ft 470 kts 225°
2026-04-26 21:27 38.25072 -15.99901 38090 ft 471 kts 225°
2026-04-26 21:27 38.20501 -16.05893 38101 ft 472 kts 225°
2026-04-26 21:28 38.16691 -16.10880 38099 ft 472 kts 225°
2026-04-26 21:28 38.12110 -16.16863 38100 ft 472 kts 225°
2026-04-26 21:29 38.07523 -16.22842 38101 ft 472 kts 225°
2026-04-26 21:29 38.02937 -16.28811 38102 ft 472 kts 225°
2026-04-26 21:30 37.98345 -16.34774 38103 ft 472 kts 225°
2026-04-26 21:30 37.93753 -16.40725 38150 ft 471 kts 225°
2026-04-26 21:31 37.89163 -16.46665 38148 ft 473 kts 225°
2026-04-26 21:31 37.84590 -16.52571 38148 ft 473 kts 225°
2026-04-26 21:32 37.79984 -16.58505 38148 ft 472 kts 225°
2026-04-26 21:32 37.75380 -16.64430 38134 ft 472 kts 225°
2026-04-26 21:33 37.70780 -16.70335 38131 ft 471 kts 225°
2026-04-26 21:33 37.66177 -16.76236 38128 ft 471 kts 225°
2026-04-26 21:34 37.61580 -16.82116 38154 ft 471 kts 224°
2026-04-26 21:34 37.56967 -16.88005 38166 ft 472 kts 225°
2026-04-26 21:35 37.52342 -16.93900 38160 ft 473 kts 224°
2026-04-26 21:35 37.47728 -16.99770 38169 ft 474 kts 225°
2026-04-26 21:36 37.43083 -17.05668 38172 ft 474 kts 224°
2026-04-26 21:36 37.38432 -17.11563 38169 ft 474 kts 224°
2026-04-26 21:37 37.33783 -17.17444 38171 ft 474 kts 224°
2026-04-26 21:37 37.29131 -17.23316 38170 ft 473 kts 224°
2026-04-26 21:38 37.24485 -17.29173 38166 ft 473 kts 224°
2026-04-26 21:38 37.19870 -17.34977 38164 ft 472 kts 224°
2026-04-26 21:39 37.15227 -17.40808 38149 ft 472 kts 224°
2026-04-26 21:39 37.10580 -17.46631 38154 ft 473 kts 224°
2026-04-26 21:40 37.05916 -17.52466 38154 ft 475 kts 224°
2026-04-26 21:40 37.01236 -17.58311 38158 ft 475 kts 224°
2026-04-26 21:41 36.96553 -17.64146 38154 ft 474 kts 224°
2026-04-26 21:41 36.91872 -17.69970 38156 ft 474 kts 224°
2026-04-26 21:42 36.87202 -17.75770 38157 ft 473 kts 224°
2026-04-26 21:42 36.82538 -17.81551 38155 ft 472 kts 224°
2026-04-26 21:43 36.77896 -17.87295 38155 ft 473 kts 224°
2026-04-26 21:43 36.73213 -17.93079 38146 ft 473 kts 224°
2026-04-26 21:44 36.68533 -17.98847 38154 ft 473 kts 224°
2026-04-26 21:44 36.63846 -18.04615 38150 ft 474 kts 224°
2026-04-26 21:45 36.59143 -18.10395 38159 ft 475 kts 224°
2026-04-26 21:45 36.54455 -18.16140 38157 ft 476 kts 224°
2026-04-26 21:46 36.49735 -18.21919 38160 ft 476 kts 224°
2026-04-26 21:46 36.45013 -18.27688 38155 ft 476 kts 224°
2026-04-26 21:47 36.40294 -18.33443 38165 ft 475 kts 224°
2026-04-26 21:47 36.35602 -18.39154 38159 ft 475 kts 224°
2026-04-26 21:48 36.30887 -18.44884 38152 ft 474 kts 224°
2026-04-26 21:48 36.26172 -18.50603 38164 ft 473 kts 224°
2026-04-26 21:49 36.21459 -18.56310 38160 ft 473 kts 224°
2026-04-26 21:49 36.16770 -18.61977 38164 ft 474 kts 223°
2026-04-26 21:50 36.12826 -18.66743 38157 ft 472 kts 224°
2026-04-26 21:50 36.07327 -18.73356 38168 ft 476 kts 223°
2026-04-26 21:51 36.02587 -18.79062 38168 ft 476 kts 223°
2026-04-26 21:51 35.97839 -18.84758 38169 ft 476 kts 224°
2026-04-26 21:52 35.93073 -18.90468 38173 ft 477 kts 224°
2026-04-26 21:52 35.88319 -18.96153 38172 ft 476 kts 224°
2026-04-26 21:53 35.83570 -19.01824 38171 ft 475 kts 224°
2026-04-26 21:53 35.78818 -19.07487 38164 ft 475 kts 224°
2026-04-26 21:54 35.74065 -19.13140 38161 ft 475 kts 224°
2026-04-26 21:54 35.69339 -19.18753 38166 ft 475 kts 224°
2026-04-26 21:55 35.64583 -19.24390 38166 ft 475 kts 224°
2026-04-26 21:55 35.59821 -19.30028 38163 ft 474 kts 224°
2026-04-26 21:56 35.55060 -19.35650 38162 ft 474 kts 224°
2026-04-26 21:56 35.50303 -19.41262 38165 ft 474 kts 224°
2026-04-26 21:57 35.45544 -19.46862 38161 ft 474 kts 224°
2026-04-26 21:57 35.40784 -19.52459 38164 ft 474 kts 223°
2026-04-26 21:58 35.36056 -19.58004 38160 ft 473 kts 224°
2026-04-26 21:58 35.31292 -19.63584 38170 ft 474 kts 223°
2026-04-26 21:59 35.26515 -19.69168 38174 ft 475 kts 223°
2026-04-26 21:59 35.21726 -19.74760 38179 ft 476 kts 223°
2026-04-26 22:00 35.16927 -19.80351 38185 ft 476 kts 223°
2026-04-26 22:00 35.12155 -19.85900 38184 ft 476 kts 224°
2026-04-26 22:01 35.07352 -19.91480 38186 ft 477 kts 224°
2026-04-26 22:01 35.02537 -19.97062 38182 ft 476 kts 223°
2026-04-26 22:02 34.98862 -20.02016 38204 ft 474 kts 236°
2026-04-26 22:02 34.94520 -20.09788 38184 ft 475 kts 236°
2026-04-26 22:03 34.90775 -20.16448 38187 ft 476 kts 236°
2026-04-26 22:03 34.87032 -20.23100 38187 ft 476 kts 236°
2026-04-26 22:04 34.83311 -20.29702 38182 ft 475 kts 236°
2026-04-26 22:04 34.79565 -20.36334 38182 ft 475 kts 236°
2026-04-26 22:05 34.75824 -20.42947 38181 ft 474 kts 236°
2026-04-26 22:05 34.72079 -20.49551 38180 ft 475 kts 236°
2026-04-26 22:06 34.68324 -20.56165 38183 ft 476 kts 236°
2026-04-26 22:06 34.64559 -20.62782 38183 ft 477 kts 236°
2026-04-26 22:07 34.60785 -20.69402 38182 ft 476 kts 236°
2026-04-26 22:07 34.57640 -20.74910 38185 ft 477 kts 237°
2026-04-26 22:08 34.53251 -20.82581 38184 ft 476 kts 237°
2026-04-26 22:08 34.49476 -20.89168 38181 ft 475 kts 237°
2026-04-26 22:09 34.45696 -20.95750 38178 ft 476 kts 237°
2026-04-26 22:09 34.41908 -21.02334 38182 ft 477 kts 237°
2026-04-26 22:10 34.38107 -21.08930 38186 ft 478 kts 237°
2026-04-26 22:10 34.34289 -21.15540 38190 ft 479 kts 237°
2026-04-26 22:11 34.30466 -21.22149 38188 ft 479 kts 237°
2026-04-26 22:11 34.26632 -21.28766 38191 ft 480 kts 237°
2026-04-26 22:12 34.22799 -21.35367 38194 ft 479 kts 237°
2026-04-26 22:12 34.18988 -21.41912 38189 ft 479 kts 237°
2026-04-26 22:13 34.15156 -21.48496 38189 ft 480 kts 238°
2026-04-26 22:13 34.11308 -21.55086 38186 ft 480 kts 238°
2026-04-26 22:14 34.07453 -21.61674 38191 ft 481 kts 238°
2026-04-26 22:14 34.03593 -21.68263 38190 ft 480 kts 238°
2026-04-26 22:15 33.99735 -21.74835 38189 ft 480 kts 238°
2026-04-26 22:15 33.95898 -21.81362 38190 ft 480 kts 238°
2026-04-26 22:16 33.92032 -21.87921 38187 ft 481 kts 238°
2026-04-26 22:16 33.88786 -21.93421 38187 ft 481 kts 238°
2026-04-26 22:17 33.84910 -21.99980 38189 ft 480 kts 238°
2026-04-26 22:17 33.81060 -22.06481 38187 ft 480 kts 238°
2026-04-26 22:18 33.77183 -22.13016 38190 ft 479 kts 238°
2026-04-26 22:18 33.73303 -22.19544 38187 ft 479 kts 238°
2026-04-26 22:19 33.69457 -22.26006 38185 ft 478 kts 238°
2026-04-26 22:19 33.65586 -22.32496 38188 ft 479 kts 238°
2026-04-26 22:20 33.61694 -22.39010 38189 ft 480 kts 238°
2026-04-26 22:20 33.57790 -22.45532 38196 ft 481 kts 239°
2026-04-26 22:21 33.53881 -22.52052 38196 ft 481 kts 239°
2026-04-26 22:21 33.49978 -22.58550 38196 ft 480 kts 239°
2026-04-26 22:22 33.46101 -22.64994 38194 ft 479 kts 239°
2026-04-26 22:22 33.42197 -22.71469 38193 ft 479 kts 239°
2026-04-26 22:23 33.38288 -22.77943 38194 ft 480 kts 239°
2026-04-26 22:23 33.34374 -22.84413 38194 ft 480 kts 239°
2026-04-26 22:24 33.30454 -22.90882 38197 ft 480 kts 240°
2026-04-26 22:24 33.26529 -22.97348 38200 ft 481 kts 240°
2026-04-26 22:25 33.22593 -23.03821 38205 ft 481 kts 240°
2026-04-26 22:25 33.18679 -23.10245 38203 ft 481 kts 240°
2026-04-26 22:26 33.14742 -23.16698 38203 ft 480 kts 240°
2026-04-26 22:26 33.10800 -23.23146 38201 ft 480 kts 240°
2026-04-26 22:27 33.06872 -23.29561 38202 ft 478 kts 240°
2026-04-26 22:27 33.02948 -23.35957 38196 ft 477 kts 240°
2026-04-26 22:28 32.99031 -23.42335 38194 ft 477 kts 240°
2026-04-26 22:28 32.95100 -23.48720 38197 ft 478 kts 240°
2026-04-26 22:29 32.91157 -23.55115 38201 ft 479 kts 240°
2026-04-26 22:29 32.87226 -23.61479 38202 ft 480 kts 240°
2026-04-26 22:30 32.83269 -23.67872 38190 ft 479 kts 241°
2026-04-26 22:30 32.79326 -23.74235 38188 ft 476 kts 241°
2026-04-26 22:31 32.75392 -23.80574 38186 ft 477 kts 241°
2026-04-26 22:31 32.71454 -23.86904 38185 ft 477 kts 241°
2026-04-26 22:32 32.67506 -23.93246 38185 ft 477 kts 241°
2026-04-26 22:32 32.63553 -23.99580 38187 ft 477 kts 241°
2026-04-26 22:33 32.57630 -24.09050 38191 ft 475 kts 241°
2026-04-26 22:34 32.53722 -24.15289 38189 ft 474 kts 241°
2026-04-26 22:34 32.49779 -24.21569 38188 ft 474 kts 241°
2026-04-26 22:35 32.45835 -24.27846 38190 ft 475 kts 241°
2026-04-26 22:35 32.41876 -24.34132 38189 ft 476 kts 241°
2026-04-26 22:36 32.37912 -24.40415 38191 ft 477 kts 241°
2026-04-26 22:36 32.33946 -24.46692 38194 ft 475 kts 241°
2026-04-26 22:37 32.29995 -24.52935 38193 ft 474 kts 241°
2026-04-26 22:37 32.26049 -24.59161 38195 ft 473 kts 241°
2026-04-26 22:38 32.22123 -24.65345 38196 ft 474 kts 241°
2026-04-26 22:38 32.18169 -24.71560 38198 ft 472 kts 241°
2026-04-26 22:39 32.14226 -24.77750 38196 ft 471 kts 241°
2026-04-26 22:39 32.10285 -24.83928 38196 ft 471 kts 241°
2026-04-26 22:40 32.06339 -24.90100 38197 ft 470 kts 241°
2026-04-26 22:40 32.02399 -24.96260 38198 ft 471 kts 241°
2026-04-26 22:41 31.98599 -25.02492 38205 ft 465 kts 245°
2026-04-26 22:41 31.95014 -25.08851 38203 ft 467 kts 244°
2026-04-26 22:42 31.91421 -25.15215 38200 ft 466 kts 244°
2026-04-26 22:42 31.87841 -25.21549 38218 ft 464 kts 244°
2026-04-26 22:43 31.84284 -25.27834 38228 ft 465 kts 244°
2026-04-26 22:43 31.80689 -25.34164 38229 ft 464 kts 244°
2026-04-26 22:44 31.77107 -25.40476 38229 ft 464 kts 244°
2026-04-26 22:44 31.73524 -25.46772 38228 ft 463 kts 244°
2026-04-26 22:45 31.69940 -25.53056 38228 ft 462 kts 244°
2026-04-26 22:45 31.66380 -25.59295 38230 ft 463 kts 244°
2026-04-26 22:46 31.62776 -25.65593 38224 ft 463 kts 244°
2026-04-26 22:46 31.59192 -25.71853 38218 ft 462 kts 244°
2026-04-26 22:47 31.55607 -25.78099 38218 ft 462 kts 244°
2026-04-26 22:47 31.52020 -25.84344 38217 ft 461 kts 244°
2026-04-26 22:48 31.48429 -25.90582 38213 ft 462 kts 244°
2026-04-26 22:48 31.44839 -25.96810 38212 ft 462 kts 244°
2026-04-26 22:49 31.41240 -26.03043 38215 ft 462 kts 244°
2026-04-26 22:49 31.37644 -26.09262 38220 ft 461 kts 244°
2026-04-26 22:50 31.34042 -26.15475 38220 ft 461 kts 244°
2026-04-26 22:50 31.30466 -26.21640 38218 ft 460 kts 244°
2026-04-26 22:51 31.26863 -26.27842 38217 ft 460 kts 243°
2026-04-26 22:51 31.23254 -26.34042 38218 ft 461 kts 243°
2026-04-26 22:52 31.19634 -26.40256 38223 ft 462 kts 243°
2026-04-26 22:52 31.16029 -26.46423 38220 ft 461 kts 243°
2026-04-26 22:53 31.12420 -26.52598 38224 ft 460 kts 243°
2026-04-26 22:53 31.08806 -26.58766 38217 ft 460 kts 243°
2026-04-26 22:54 31.05185 -26.64937 38221 ft 461 kts 243°
2026-04-26 22:54 31.01555 -26.71118 38213 ft 461 kts 243°
2026-04-26 22:55 30.97951 -26.77240 38212 ft 462 kts 243°
2026-04-26 22:55 30.94309 -26.83419 38217 ft 462 kts 243°
2026-04-26 22:56 30.90664 -26.89594 38212 ft 462 kts 243°
2026-04-26 22:56 30.87016 -26.95762 38214 ft 461 kts 242°
2026-04-26 22:57 30.83383 -27.01897 38210 ft 460 kts 242°
2026-04-26 22:57 30.79751 -27.08020 38208 ft 460 kts 242°
2026-04-26 22:58 30.76107 -27.14157 38207 ft 461 kts 242°
2026-04-26 22:58 30.72459 -27.20286 38203 ft 460 kts 242°
2026-04-26 22:59 30.68821 -27.26394 38207 ft 459 kts 242°
2026-04-26 22:59 30.65197 -27.32463 38202 ft 460 kts 242°
2026-04-26 23:00 30.61550 -27.38565 38204 ft 460 kts 242°
2026-04-26 23:00 30.57897 -27.44669 38206 ft 460 kts 242°
2026-04-26 23:01 30.54237 -27.50773 38208 ft 461 kts 242°
2026-04-26 23:01 30.50567 -27.56885 38209 ft 460 kts 242°
2026-04-26 23:02 30.46910 -27.62965 38206 ft 459 kts 242°
2026-04-26 23:02 30.43250 -27.69045 38206 ft 460 kts 242°
2026-04-26 23:03 30.39588 -27.75113 38212 ft 459 kts 242°
2026-04-26 23:03 30.35956 -27.81124 38210 ft 458 kts 242°
2026-04-26 23:04 30.32297 -27.87174 38205 ft 458 kts 241°
2026-04-26 23:04 30.29251 -27.92202 38209 ft 460 kts 241°
2026-04-26 23:05 30.25570 -27.98265 38208 ft 459 kts 241°
2026-04-26 23:05 30.21894 -28.04318 38210 ft 458 kts 241°
2026-04-26 23:06 30.18230 -28.10338 38208 ft 458 kts 241°
2026-04-26 23:06 30.14558 -28.16364 38206 ft 459 kts 241°
2026-04-26 23:07 30.10873 -28.22402 38209 ft 461 kts 241°
2026-04-26 23:07 30.07193 -28.28420 38208 ft 461 kts 241°
2026-04-26 23:08 30.03499 -28.34456 38213 ft 460 kts 241°
2026-04-26 23:08 29.99804 -28.40481 38208 ft 459 kts 241°
2026-04-26 23:09 29.96116 -28.46489 38212 ft 458 kts 241°
2026-04-26 23:09 29.92440 -28.52467 38205 ft 457 kts 241°
2026-04-26 23:10 29.88747 -28.58464 38207 ft 458 kts 240°
2026-04-26 23:10 29.85053 -28.64453 38210 ft 458 kts 241°
2026-04-26 23:11 29.81356 -28.70442 38210 ft 457 kts 240°
2026-04-26 23:11 29.77694 -28.76357 38176 ft 456 kts 240°
2026-04-26 23:12 29.74017 -28.82296 38176 ft 455 kts 240°
2026-04-26 23:12 29.70340 -28.88224 38179 ft 455 kts 240°
2026-04-26 23:13 29.66661 -28.94147 38177 ft 454 kts 240°
2026-04-26 23:13 29.62977 -29.00065 38177 ft 455 kts 240°
2026-04-26 23:14 29.59293 -29.05980 38182 ft 455 kts 240°
2026-04-26 23:14 29.55601 -29.11894 38181 ft 454 kts 240°
2026-04-26 23:15 29.51923 -29.17783 38179 ft 453 kts 240°
2026-04-26 23:15 29.48242 -29.23665 38178 ft 453 kts 240°
2026-04-26 23:16 29.44579 -29.29513 38182 ft 454 kts 240°
2026-04-26 23:16 29.40885 -29.35398 38186 ft 454 kts 240°
2026-04-26 23:17 29.37185 -29.41286 38184 ft 455 kts 240°
2026-04-26 23:17 29.33479 -29.47174 38184 ft 454 kts 240°
2026-04-26 23:18 29.29787 -29.53033 38184 ft 453 kts 240°
2026-04-26 23:18 29.26116 -29.58849 38180 ft 452 kts 240°
2026-04-26 23:19 29.22428 -29.64686 38179 ft 453 kts 240°
2026-04-26 23:19 29.18724 -29.70537 38184 ft 454 kts 240°
2026-04-26 23:20 29.15014 -29.76392 38184 ft 455 kts 240°
2026-04-26 23:20 29.11294 -29.82254 38185 ft 455 kts 240°
2026-04-26 23:21 29.07565 -29.88121 38186 ft 455 kts 239°
2026-04-26 23:21 29.03847 -29.93962 38180 ft 454 kts 239°
2026-04-26 23:22 29.00143 -29.99787 38178 ft 450 kts 242°
2026-04-26 23:22 28.96882 -30.05847 38172 ft 448 kts 243°
2026-04-26 23:23 28.93613 -30.11909 38172 ft 447 kts 244°
2026-04-26 23:23 28.90392 -30.17932 38175 ft 447 kts 244°
2026-04-26 23:24 28.87132 -30.23984 38176 ft 448 kts 244°
2026-04-26 23:24 28.83867 -30.30054 38177 ft 449 kts 243°
2026-04-26 23:25 28.80585 -30.36139 38176 ft 450 kts 243°
2026-04-26 23:25 28.77308 -30.42209 38177 ft 449 kts 243°
2026-04-26 23:26 28.74037 -30.48258 38173 ft 448 kts 243°
2026-04-26 23:26 28.70790 -30.54255 38171 ft 447 kts 243°
2026-04-26 23:27 28.67521 -30.60285 38174 ft 447 kts 244°
2026-04-26 23:27 28.64251 -30.66305 38171 ft 448 kts 243°
2026-04-26 23:28 28.60964 -30.72351 38152 ft 449 kts 243°
2026-04-26 23:28 28.57671 -30.78394 38164 ft 449 kts 243°
2026-04-26 23:29 28.54380 -30.84432 38161 ft 449 kts 243°
2026-04-26 23:29 28.51099 -30.90435 38153 ft 449 kts 243°
2026-04-26 23:30 28.47807 -30.96455 38152 ft 447 kts 243°
2026-04-26 23:30 28.44522 -31.02455 38152 ft 446 kts 243°
2026-04-26 23:31 28.41254 -31.08412 38109 ft 448 kts 243°
2026-04-26 23:31 28.37957 -31.14411 38110 ft 448 kts 243°
2026-04-26 23:32 28.34656 -31.20413 38113 ft 448 kts 243°
2026-04-26 23:32 28.31352 -31.26412 38106 ft 448 kts 243°
2026-04-26 23:33 28.28034 -31.32426 38102 ft 449 kts 243°
2026-04-26 23:33 28.24726 -31.38415 38099 ft 447 kts 243°
2026-04-26 23:34 28.21426 -31.44379 38091 ft 446 kts 243°
2026-04-26 23:34 28.18132 -31.50327 38088 ft 445 kts 243°
2026-04-26 23:35 28.14831 -31.56278 38093 ft 446 kts 243°
2026-04-26 23:35 28.11546 -31.62190 38095 ft 447 kts 243°
2026-04-26 23:36 28.08230 -31.68151 38101 ft 447 kts 243°
2026-04-26 23:36 28.04910 -31.74109 38100 ft 447 kts 243°
2026-04-26 23:37 28.01595 -31.80053 38103 ft 446 kts 243°
2026-04-26 23:37 27.98278 -31.85991 38100 ft 445 kts 243°
2026-04-26 23:38 27.94986 -31.91876 38096 ft 446 kts 243°
2026-04-26 23:38 27.91660 -31.97815 38095 ft 446 kts 243°
2026-04-26 23:39 27.88332 -32.03748 38102 ft 447 kts 243°
2026-04-26 23:39 27.84991 -32.09695 38104 ft 448 kts 243°
2026-04-26 23:40 27.81649 -32.15637 38101 ft 448 kts 243°
2026-04-26 23:40 27.78303 -32.21579 38104 ft 448 kts 243°
2026-04-26 23:41 27.74972 -32.27481 38099 ft 447 kts 243°
2026-04-26 23:41 27.71635 -32.33392 38101 ft 445 kts 243°
2026-04-26 23:42 27.68306 -32.39276 38097 ft 444 kts 243°
2026-04-26 23:42 27.63314 -32.48089 38098 ft 444 kts 243°
2026-04-26 23:43 27.59988 -32.53950 38098 ft 443 kts 243°
2026-04-26 23:43 27.56676 -32.59780 38089 ft 442 kts 243°
2026-04-26 23:44 27.53361 -32.65604 38092 ft 441 kts 243°
2026-04-26 23:44 27.50064 -32.71392 38094 ft 441 kts 243°
2026-04-26 23:45 27.47303 -32.76232 38096 ft 442 kts 243°
2026-04-26 23:45 27.43418 -32.83031 38094 ft 441 kts 243°
2026-04-26 23:46 27.40098 -32.88837 38096 ft 441 kts 244°
2026-04-26 23:46 27.36782 -32.94625 38090 ft 440 kts 244°
2026-04-26 23:47 27.33488 -33.00368 38095 ft 439 kts 244°
2026-04-26 23:47 27.30183 -33.06121 38096 ft 438 kts 244°
2026-04-26 23:48 27.26875 -33.11876 38093 ft 439 kts 244°
2026-04-26 23:48 27.23561 -33.17631 38092 ft 437 kts 244°
2026-04-26 23:49 27.20258 -33.23360 38091 ft 437 kts 244°
2026-04-26 23:49 27.16947 -33.29097 38095 ft 438 kts 244°
2026-04-26 23:50 27.13631 -33.34832 38091 ft 438 kts 244°
2026-04-26 23:50 27.10336 -33.40522 38093 ft 436 kts 244°
2026-04-26 23:51 27.07032 -33.46226 38089 ft 435 kts 244°
2026-04-26 23:51 27.03729 -33.51918 38090 ft 435 kts 244°
2026-04-26 23:52 27.00427 -33.57601 38090 ft 434 kts 244°
2026-04-26 23:52 26.97685 -33.62314 38092 ft 434 kts 244°
2026-04-26 23:53 26.94381 -33.67988 38088 ft 434 kts 244°
2026-04-26 23:53 26.91076 -33.73655 38093 ft 433 kts 244°
2026-04-26 23:54 26.87778 -33.79304 38089 ft 432 kts 244°
2026-04-26 23:54 26.84483 -33.84938 38089 ft 432 kts 244°
2026-04-26 23:55 26.81195 -33.90557 38094 ft 431 kts 244°
2026-04-26 23:55 26.77912 -33.96158 38078 ft 430 kts 244°
2026-04-26 23:56 26.74644 -34.01729 38079 ft 431 kts 244°
2026-04-26 23:56 26.71356 -34.07319 38081 ft 428 kts 244°
2026-04-26 23:57 26.68088 -34.12880 38082 ft 427 kts 244°
2026-04-26 23:57 26.64824 -34.18421 38080 ft 427 kts 244°
2026-04-26 23:58 26.61550 -34.23973 38078 ft 428 kts 244°
2026-04-26 23:58 26.58276 -34.29517 38079 ft 427 kts 244°
2026-04-26 23:59 26.55003 -34.35054 38079 ft 427 kts 244°
2026-04-26 23:59 26.51726 -34.40592 38081 ft 427 kts 244°
2026-04-27 00:00 26.48472 -34.46081 38078 ft 426 kts 244°
2026-04-27 00:00 26.45199 -34.51599 38079 ft 426 kts 244°
2026-04-27 00:01 26.41921 -34.57116 38091 ft 427 kts 244°
2026-04-27 00:01 26.38629 -34.62652 38082 ft 429 kts 244°
2026-04-27 00:02 26.35325 -34.68197 38080 ft 429 kts 244°
2026-04-27 00:02 26.32023 -34.73736 38079 ft 427 kts 244°
2026-04-27 00:03 26.28733 -34.79248 38076 ft 426 kts 244°
2026-04-27 00:03 26.25467 -34.84712 38073 ft 426 kts 244°
2026-04-27 00:04 26.22171 -34.90221 38076 ft 427 kts 244°
2026-04-27 00:04 26.18876 -34.95719 38078 ft 426 kts 244°
2026-04-27 00:05 26.15591 -35.01199 38076 ft 425 kts 244°
2026-04-27 00:05 26.12296 -35.06682 38078 ft 426 kts 244°
2026-04-27 00:06 26.09028 -35.12120 38079 ft 425 kts 244°
2026-04-27 00:06 26.05734 -35.17590 38078 ft 424 kts 245°
2026-04-27 00:07 26.02453 -35.23036 38078 ft 424 kts 244°
2026-04-27 00:07 25.99156 -35.28499 38083 ft 425 kts 245°
2026-04-27 00:08 25.95867 -35.33942 38081 ft 424 kts 245°
2026-04-27 00:08 25.92605 -35.39336 38081 ft 422 kts 244°
2026-04-27 00:09 25.89328 -35.44747 38081 ft 422 kts 245°
2026-04-27 00:09 25.86048 -35.50159 38081 ft 422 kts 245°
2026-04-27 00:10 25.82767 -35.55563 38081 ft 422 kts 244°
2026-04-27 00:10 25.79487 -35.60960 38086 ft 421 kts 244°
2026-04-27 00:11 25.76207 -35.66356 38081 ft 422 kts 244°
2026-04-27 00:11 25.72914 -35.71759 38078 ft 423 kts 244°
2026-04-27 00:12 25.69636 -35.77136 38081 ft 423 kts 244°
2026-04-27 00:12 25.66342 -35.82534 38078 ft 423 kts 244°
2026-04-27 00:13 25.63039 -35.87936 38080 ft 422 kts 244°
2026-04-27 00:13 25.59735 -35.93337 38070 ft 424 kts 244°
2026-04-27 00:14 25.56427 -35.98736 38070 ft 424 kts 244°
2026-04-27 00:14 25.53119 -36.04129 38070 ft 423 kts 244°
2026-04-27 00:15 25.49810 -36.09519 38070 ft 422 kts 244°
2026-04-27 00:15 25.46504 -36.14897 38068 ft 422 kts 244°
2026-04-27 00:16 25.43209 -36.20252 38081 ft 424 kts 244°
2026-04-27 00:16 25.39886 -36.25647 38082 ft 425 kts 244°
2026-04-27 00:17 25.36546 -36.31060 38092 ft 426 kts 244°
2026-04-27 00:17 25.33196 -36.36486 38093 ft 427 kts 244°
2026-04-27 00:18 25.29870 -36.41864 38089 ft 426 kts 244°
2026-04-27 00:18 25.26530 -36.47262 38092 ft 425 kts 243°
2026-04-27 00:19 25.23190 -36.52652 38087 ft 425 kts 243°
2026-04-27 00:19 25.19835 -36.58060 38088 ft 427 kts 243°
2026-04-27 00:20 25.16469 -36.63481 38094 ft 429 kts 243°
2026-04-27 00:20 25.13093 -36.68910 38094 ft 429 kts 243°
2026-04-27 00:21 25.09706 -36.74352 38092 ft 430 kts 243°
2026-04-27 00:21 25.06338 -36.79755 38094 ft 428 kts 243°
2026-04-27 00:22 25.02969 -36.85155 38080 ft 427 kts 243°
2026-04-27 00:22 24.99595 -36.90560 38080 ft 428 kts 243°
2026-04-27 00:23 24.96205 -36.95980 38082 ft 430 kts 243°
2026-04-27 00:23 24.92795 -37.01429 38093 ft 431 kts 243°
2026-04-27 00:24 24.89414 -37.06822 38093 ft 430 kts 243°
2026-04-27 00:24 24.86023 -37.12229 38083 ft 430 kts 243°
2026-04-27 00:25 24.82618 -37.17648 38076 ft 431 kts 243°
2026-04-27 00:25 24.79212 -37.23063 38078 ft 429 kts 242°
2026-04-27 00:26 24.75817 -37.28461 38074 ft 429 kts 242°
2026-04-27 00:26 24.72414 -37.33858 38080 ft 430 kts 242°
2026-04-27 00:27 24.68992 -37.39283 38080 ft 433 kts 242°
2026-04-27 00:27 24.65560 -37.44713 38080 ft 431 kts 242°
2026-04-27 00:28 24.62160 -37.50094 38079 ft 432 kts 242°
2026-04-27 00:28 24.58724 -37.55520 38080 ft 432 kts 242°
2026-04-27 00:29 24.55296 -37.60927 38078 ft 431 kts 242°
2026-04-27 00:29 24.51867 -37.66336 38075 ft 431 kts 242°
2026-04-27 00:30 24.48429 -37.71748 38076 ft 433 kts 242°
2026-04-27 00:30 24.44976 -37.77178 38079 ft 434 kts 242°
2026-04-27 00:31 24.41535 -37.82583 38081 ft 435 kts 241°
2026-04-27 00:31 24.38064 -37.88030 38080 ft 436 kts 241°
2026-04-27 00:32 24.34598 -37.93460 38078 ft 433 kts 241°
2026-04-27 00:32 24.31141 -37.98874 38075 ft 432 kts 241°
2026-04-27 00:33 24.27689 -38.04276 38073 ft 433 kts 241°
2026-04-27 00:33 24.24215 -38.09701 38076 ft 435 kts 241°
2026-04-27 00:34 24.20732 -38.15136 38080 ft 436 kts 241°
2026-04-27 00:34 24.17251 -38.20562 38078 ft 434 kts 241°
2026-04-27 00:35 24.13791 -38.25952 38073 ft 432 kts 241°
2026-04-27 00:35 24.10343 -38.31314 38073 ft 433 kts 241°
2026-04-27 00:36 24.06871 -38.36709 38074 ft 434 kts 241°
2026-04-27 00:36 24.03396 -38.42103 38099 ft 433 kts 241°
2026-04-27 00:37 23.99922 -38.47489 38097 ft 433 kts 241°
2026-04-27 00:37 23.96445 -38.52875 38107 ft 435 kts 241°
2026-04-27 00:38 23.92944 -38.58289 38109 ft 436 kts 241°
2026-04-27 00:38 23.89434 -38.63716 38112 ft 438 kts 240°
2026-04-27 00:39 23.85932 -38.69120 38114 ft 437 kts 241°
2026-04-27 00:39 23.82426 -38.74525 38107 ft 435 kts 241°
2026-04-27 00:40 23.78923 -38.79925 38109 ft 436 kts 240°
2026-04-27 00:40 23.75404 -38.85337 38109 ft 437 kts 240°
2026-04-27 00:41 23.72475 -38.89842 38107 ft 438 kts 240°
2026-04-27 00:41 23.68933 -38.95280 38111 ft 439 kts 240°
2026-04-27 00:42 23.64810 -39.01603 38113 ft 439 kts 240°
2026-04-27 00:42 23.61847 -39.06144 38110 ft 438 kts 240°
2026-04-27 00:43 23.58311 -39.11555 38107 ft 438 kts 240°
2026-04-27 00:43 23.54798 -39.16929 38105 ft 437 kts 240°
2026-04-27 00:44 23.51268 -39.22321 38103 ft 437 kts 240°
2026-04-27 00:44 23.47730 -39.27719 38104 ft 439 kts 240°
2026-04-27 00:45 23.44180 -39.33131 38111 ft 440 kts 240°
2026-04-27 00:45 23.40618 -39.38556 38110 ft 440 kts 240°
2026-04-27 00:46 23.37053 -39.43976 38114 ft 440 kts 240°
2026-04-27 00:46 23.33492 -39.49388 38111 ft 439 kts 240°
2026-04-27 00:47 23.29958 -39.54750 38110 ft 439 kts 240°
2026-04-27 00:47 23.26400 -39.60146 38109 ft 438 kts 240°
2026-04-27 00:48 23.22845 -39.65531 38108 ft 438 kts 240°
2026-04-27 00:48 23.19288 -39.70912 38109 ft 438 kts 240°
2026-04-27 00:49 23.15724 -39.76299 38111 ft 439 kts 240°
2026-04-27 00:49 23.12154 -39.81691 38111 ft 440 kts 240°
2026-04-27 00:50 23.06792 -39.89774 38109 ft 440 kts 240°
2026-04-27 00:51 23.03215 -39.95162 38113 ft 440 kts 240°
2026-04-27 00:51 22.99600 -40.00532 38115 ft 443 kts 236°
2026-04-27 00:52 22.95656 -40.05676 38107 ft 442 kts 236°
2026-04-27 00:52 22.91747 -40.10803 38109 ft 441 kts 236°
2026-04-27 00:53 22.87815 -40.15932 38105 ft 442 kts 236°
2026-04-27 00:53 22.83877 -40.21074 38110 ft 444 kts 236°
2026-04-27 00:54 22.79954 -40.26186 38110 ft 442 kts 236°
2026-04-27 00:54 22.76016 -40.31316 38108 ft 441 kts 236°
2026-04-27 00:55 22.72082 -40.36437 38106 ft 442 kts 236°
2026-04-27 00:55 22.68143 -40.41554 38106 ft 442 kts 236°
2026-04-27 00:56 22.64230 -40.46638 38108 ft 442 kts 236°
2026-04-27 00:56 22.60296 -40.51742 38106 ft 442 kts 236°
2026-04-27 00:57 22.56348 -40.56858 38113 ft 444 kts 236°
2026-04-27 00:57 22.52388 -40.61985 38113 ft 444 kts 236°
2026-04-27 00:58 22.48426 -40.67108 38111 ft 444 kts 236°
2026-04-27 00:58 22.44466 -40.72229 38113 ft 444 kts 236°
2026-04-27 00:59 22.40500 -40.77347 38110 ft 444 kts 236°
2026-04-27 00:59 22.36534 -40.82462 38112 ft 443 kts 236°
2026-04-27 01:00 22.32582 -40.87554 38111 ft 441 kts 236°
2026-04-27 01:00 22.28630 -40.92642 38110 ft 442 kts 236°
2026-04-27 01:01 22.24673 -40.97730 38110 ft 443 kts 236°
2026-04-27 01:01 22.20706 -41.02828 38112 ft 444 kts 235°
2026-04-27 01:02 22.16728 -41.07933 38114 ft 445 kts 235°
2026-04-27 01:02 22.12767 -41.13012 38110 ft 444 kts 235°
2026-04-27 01:03 22.08799 -41.18095 38110 ft 442 kts 235°
2026-04-27 01:03 22.04832 -41.23172 38105 ft 442 kts 235°
2026-04-27 01:04 22.00863 -41.28246 38106 ft 443 kts 235°
2026-04-27 01:04 21.96881 -41.33335 38104 ft 445 kts 235°
2026-04-27 01:05 21.92905 -41.38406 38108 ft 446 kts 235°
2026-04-27 01:05 21.88897 -41.43517 38110 ft 447 kts 235°
2026-04-27 01:06 21.84886 -41.48626 38110 ft 446 kts 235°
2026-04-27 01:06 21.80877 -41.53727 38111 ft 446 kts 234°
2026-04-27 01:07 21.76868 -41.58823 38106 ft 446 kts 235°
2026-04-27 01:07 21.72860 -41.63914 38107 ft 445 kts 234°
2026-04-27 01:08 21.68887 -41.68956 38108 ft 444 kts 234°
2026-04-27 01:08 21.64891 -41.74020 38105 ft 444 kts 234°
2026-04-27 01:09 21.60894 -41.79085 38102 ft 444 kts 234°
2026-04-27 01:09 21.56889 -41.84152 38104 ft 445 kts 234°
2026-04-27 01:10 21.52877 -41.89224 38106 ft 446 kts 234°
2026-04-27 01:10 21.48839 -41.94324 38110 ft 448 kts 234°
2026-04-27 01:11 21.44828 -41.99383 38113 ft 447 kts 234°
2026-04-27 01:11 21.40779 -42.04488 38108 ft 446 kts 234°
2026-04-27 01:12 21.36781 -42.09523 38109 ft 446 kts 234°
2026-04-27 01:12 21.32754 -42.14591 38105 ft 446 kts 234°
2026-04-27 01:13 21.28715 -42.19669 38110 ft 448 kts 234°
2026-04-27 01:13 21.24662 -42.24759 38112 ft 449 kts 234°
2026-04-27 01:14 21.20601 -42.29855 38111 ft 450 kts 234°
2026-04-27 01:14 21.16548 -42.34935 38109 ft 451 kts 234°
2026-04-27 01:15 21.12465 -42.40048 38108 ft 450 kts 234°
2026-04-27 01:15 21.08398 -42.45138 38105 ft 449 kts 234°
2026-04-27 01:16 21.04320 -42.50236 38105 ft 451 kts 234°
2026-04-27 01:16 21.00230 -42.55346 38109 ft 452 kts 234°
2026-04-27 01:17 20.96121 -42.60471 38108 ft 452 kts 234°
2026-04-27 01:17 20.92056 -42.65539 38106 ft 451 kts 234°
2026-04-27 01:18 20.87967 -42.70633 38106 ft 452 kts 233°
2026-04-27 01:18 20.83854 -42.75751 38098 ft 454 kts 233°
2026-04-27 01:19 20.79738 -42.80867 38105 ft 454 kts 233°
2026-04-27 01:19 20.75623 -42.85981 38101 ft 453 kts 233°
2026-04-27 01:20 20.71508 -42.91087 38097 ft 453 kts 233°
2026-04-27 01:20 20.67415 -42.96162 38101 ft 454 kts 233°
2026-04-27 01:21 20.63292 -43.01268 38100 ft 455 kts 233°
2026-04-27 01:21 20.59158 -43.06386 38105 ft 456 kts 233°
2026-04-27 01:22 20.55024 -43.11496 38099 ft 453 kts 233°
2026-04-27 01:22 20.50900 -43.16593 38100 ft 454 kts 233°
2026-04-27 01:23 20.46764 -43.21699 38101 ft 455 kts 233°
2026-04-27 01:23 20.42621 -43.26807 38098 ft 456 kts 233°
2026-04-27 01:24 20.38489 -43.31897 38102 ft 457 kts 233°
2026-04-27 01:24 20.34331 -43.37016 38098 ft 456 kts 233°
2026-04-27 01:25 20.30174 -43.42129 38098 ft 456 kts 233°
2026-04-27 01:25 20.26010 -43.47246 38100 ft 457 kts 233°
2026-04-27 01:26 20.21857 -43.52344 38103 ft 458 kts 233°
2026-04-27 01:26 20.17675 -43.57473 38099 ft 458 kts 233°
2026-04-27 01:27 20.13494 -43.62598 38104 ft 458 kts 233°
2026-04-27 01:27 20.09311 -43.67719 38099 ft 458 kts 233°
2026-04-27 01:28 20.05126 -43.72837 38101 ft 458 kts 233°
2026-04-27 01:28 20.00928 -43.77971 38103 ft 460 kts 233°
2026-04-27 01:29 19.96718 -43.83109 38076 ft 459 kts 233°
2026-04-27 01:29 19.93239 -43.87357 38074 ft 458 kts 233°
2026-04-27 01:30 19.88378 -43.93281 38072 ft 458 kts 233°
2026-04-27 01:30 19.84186 -43.98387 38072 ft 458 kts 233°
2026-04-27 01:31 19.80670 -44.02667 38073 ft 459 kts 233°
2026-04-27 01:31 19.76493 -44.07745 38059 ft 460 kts 233°
2026-04-27 01:32 19.72274 -44.12871 38070 ft 461 kts 233°
2026-04-27 01:32 19.68059 -44.17988 38070 ft 460 kts 233°
2026-04-27 01:33 19.63853 -44.23089 38067 ft 459 kts 233°
2026-04-27 01:33 19.59634 -44.28202 38068 ft 460 kts 233°
2026-04-27 01:34 19.55407 -44.33318 38069 ft 461 kts 232°
2026-04-27 01:34 19.51175 -44.38440 38070 ft 462 kts 232°
2026-04-27 01:35 19.46962 -44.43529 38071 ft 462 kts 232°
2026-04-27 01:35 19.42719 -44.48654 38072 ft 463 kts 232°
2026-04-27 01:36 19.38468 -44.53784 38073 ft 463 kts 232°
2026-04-27 01:36 19.34220 -44.58904 38071 ft 462 kts 232°
2026-04-27 01:37 19.29967 -44.64028 38073 ft 463 kts 232°
2026-04-27 01:37 19.25708 -44.69153 38071 ft 464 kts 232°
2026-04-27 01:38 19.21471 -44.74248 38073 ft 465 kts 232°
2026-04-27 01:38 19.17191 -44.79388 38072 ft 465 kts 232°
2026-04-27 01:39 19.12917 -44.84520 38070 ft 464 kts 232°
2026-04-27 01:39 19.08648 -44.89639 38069 ft 464 kts 232°
2026-04-27 01:40 19.04380 -44.94754 38065 ft 464 kts 232°
2026-04-27 01:40 19.00087 -44.99878 38055 ft 466 kts 229°
2026-04-27 01:41 18.95396 -45.04631 38052 ft 468 kts 227°
2026-04-27 01:41 18.90699 -45.09378 38051 ft 468 kts 227°
2026-04-27 01:42 18.85988 -45.14109 38051 ft 467 kts 227°
2026-04-27 01:42 18.81300 -45.18830 38049 ft 466 kts 227°
2026-04-27 01:43 18.76607 -45.23543 38046 ft 466 kts 227°
2026-04-27 01:43 18.71898 -45.28274 38050 ft 468 kts 227°
2026-04-27 01:44 18.67173 -45.33013 38062 ft 469 kts 227°
2026-04-27 01:44 18.62441 -45.37757 38064 ft 469 kts 227°
2026-04-27 01:45 18.57738 -45.42468 38064 ft 469 kts 227°
2026-04-27 01:45 18.52998 -45.47212 38063 ft 469 kts 227°
2026-04-27 01:46 18.48265 -45.51944 38063 ft 470 kts 227°
2026-04-27 01:46 18.43519 -45.56688 38065 ft 471 kts 227°
2026-04-27 01:47 18.38762 -45.61433 38065 ft 469 kts 227°
2026-04-27 01:47 18.34060 -45.66129 38060 ft 467 kts 227°
2026-04-27 01:48 18.29324 -45.70849 38058 ft 469 kts 227°
2026-04-27 01:48 18.24570 -45.75584 38061 ft 470 kts 227°
2026-04-27 01:49 18.19812 -45.80320 38063 ft 471 kts 227°
2026-04-27 01:49 18.15045 -45.85060 38064 ft 471 kts 227°
2026-04-27 01:50 18.10322 -45.89753 38062 ft 470 kts 227°
2026-04-27 01:50 18.05571 -45.94472 38059 ft 469 kts 227°
2026-04-27 01:51 18.00837 -45.99170 38048 ft 468 kts 227°
2026-04-27 01:51 17.96194 -46.03951 38055 ft 469 kts 227°
2026-04-27 01:52 17.91504 -46.08733 38056 ft 470 kts 228°
2026-04-27 01:52 17.86841 -46.13563 38045 ft 471 kts 227°
2026-04-27 01:53 17.82148 -46.18369 38022 ft 470 kts 228°
2026-04-27 01:53 17.77487 -46.23172 38020 ft 469 kts 227°
2026-04-27 01:54 17.72814 -46.27963 38019 ft 469 kts 227°
2026-04-27 01:54 17.68154 -46.32747 38032 ft 468 kts 227°
2026-04-27 01:55 17.63491 -46.37526 38032 ft 469 kts 227°
2026-04-27 01:55 17.58847 -46.42284 38034 ft 470 kts 227°
2026-04-27 01:56 17.51826 -46.49469 38037 ft 470 kts 227°
2026-04-27 01:56 17.47140 -46.54261 38036 ft 471 kts 227°
2026-04-27 01:57 17.42450 -46.59051 38038 ft 471 kts 227°
2026-04-27 01:57 17.37762 -46.63837 38038 ft 471 kts 227°
2026-04-27 01:58 17.33058 -46.68637 38040 ft 472 kts 227°
2026-04-27 01:58 17.28360 -46.73425 38039 ft 471 kts 227°
2026-04-27 01:59 17.23667 -46.78206 38038 ft 471 kts 227°
2026-04-27 01:59 17.18968 -46.82987 38038 ft 471 kts 227°
2026-04-27 02:00 17.14273 -46.87763 38037 ft 470 kts 227°
2026-04-27 02:00 17.09578 -46.92537 38036 ft 471 kts 227°
2026-04-27 02:01 17.04876 -46.97310 38038 ft 472 kts 227°
2026-04-27 02:01 17.00188 -47.02068 38041 ft 473 kts 227°
2026-04-27 02:02 16.95467 -47.06859 38041 ft 473 kts 226°
2026-04-27 02:02 16.90740 -47.11644 38041 ft 472 kts 226°
2026-04-27 02:03 16.86033 -47.16413 38039 ft 471 kts 226°
2026-04-27 02:03 16.81319 -47.21180 38037 ft 471 kts 226°
2026-04-27 02:04 16.76611 -47.25942 38038 ft 472 kts 226°
2026-04-27 02:04 16.71887 -47.30715 38039 ft 473 kts 226°
2026-04-27 02:05 16.67186 -47.35461 38041 ft 474 kts 226°
2026-04-27 02:05 16.62442 -47.40247 38044 ft 475 kts 226°
2026-04-27 02:06 16.57706 -47.45022 38041 ft 472 kts 226°
2026-04-27 02:06 16.52976 -47.49788 38038 ft 472 kts 226°
2026-04-27 02:07 16.48252 -47.54543 38038 ft 472 kts 226°
2026-04-27 02:07 16.43516 -47.59307 38039 ft 474 kts 226°
2026-04-27 02:08 16.38764 -47.64084 38041 ft 475 kts 226°
2026-04-27 02:08 16.34043 -47.68826 38044 ft 474 kts 226°
2026-04-27 02:09 16.29289 -47.73599 38044 ft 475 kts 226°
2026-04-27 02:09 16.24520 -47.78383 38046 ft 476 kts 226°
2026-04-27 02:10 16.19757 -47.83157 38044 ft 475 kts 226°
2026-04-27 02:10 16.14997 -47.87926 38043 ft 475 kts 226°
2026-04-27 02:11 16.10231 -47.92697 38045 ft 476 kts 226°
2026-04-27 02:11 16.05451 -47.97478 38046 ft 476 kts 226°
2026-04-27 02:12 16.00698 -48.02229 38047 ft 477 kts 226°
2026-04-27 02:12 15.95919 -48.07003 38049 ft 477 kts 226°
2026-04-27 02:13 15.91135 -48.11778 38042 ft 476 kts 226°
2026-04-27 02:13 15.86367 -48.16535 38038 ft 474 kts 226°
2026-04-27 02:14 15.81616 -48.21270 38034 ft 473 kts 226°
2026-04-27 02:14 15.76848 -48.26021 38034 ft 475 kts 225°
2026-04-27 02:15 15.72073 -48.30772 38036 ft 476 kts 225°
2026-04-27 02:15 15.67325 -48.35497 38038 ft 476 kts 225°
2026-04-27 02:16 15.62543 -48.40250 38038 ft 476 kts 225°
2026-04-27 02:16 15.57753 -48.45009 38037 ft 477 kts 225°
2026-04-27 02:17 15.52960 -48.49769 38037 ft 476 kts 225°
2026-04-27 02:17 15.48979 -48.53715 38035 ft 476 kts 225°
2026-04-27 02:18 15.44202 -48.58455 38032 ft 475 kts 225°
2026-04-27 02:18 15.39418 -48.63193 38037 ft 475 kts 225°
2026-04-27 02:19 15.34636 -48.67927 38035 ft 476 kts 225°
2026-04-27 02:19 15.29846 -48.72670 38031 ft 476 kts 225°
2026-04-27 02:20 15.25074 -48.77387 38032 ft 477 kts 225°
2026-04-27 02:20 15.20272 -48.82134 38034 ft 478 kts 225°
2026-04-27 02:21 15.15446 -48.86898 38038 ft 479 kts 225°
2026-04-27 02:21 15.10630 -48.91652 38032 ft 477 kts 225°
2026-04-27 02:22 15.05825 -48.96392 38034 ft 477 kts 225°
2026-04-27 02:22 15.01014 -49.01132 38037 ft 478 kts 225°
2026-04-27 02:23 14.96204 -49.05871 38034 ft 478 kts 225°
2026-04-27 02:23 14.91385 -49.10615 38036 ft 479 kts 225°
2026-04-27 02:24 14.86552 -49.15368 38033 ft 480 kts 225°
2026-04-27 02:24 14.81744 -49.20095 38033 ft 479 kts 225°
2026-04-27 02:25 14.76915 -49.24840 38030 ft 478 kts 225°
2026-04-27 02:25 14.72098 -49.29570 38029 ft 478 kts 225°
2026-04-27 02:26 14.67255 -49.34319 38031 ft 480 kts 225°
2026-04-27 02:26 14.62418 -49.39065 38032 ft 480 kts 225°
2026-04-27 02:27 14.57577 -49.43806 38031 ft 480 kts 225°
2026-04-27 02:27 14.52758 -49.48526 38032 ft 481 kts 224°
2026-04-27 02:28 14.47895 -49.53285 38035 ft 482 kts 224°
2026-04-27 02:28 14.43028 -49.58045 38035 ft 481 kts 224°
2026-04-27 02:29 14.38168 -49.62795 38032 ft 481 kts 224°
2026-04-27 02:29 14.33311 -49.67540 38031 ft 481 kts 224°
2026-04-27 02:30 14.28477 -49.72256 38006 ft 482 kts 224°
2026-04-27 02:30 14.23611 -49.77007 38005 ft 482 kts 224°
2026-04-27 02:31 14.18730 -49.81764 38006 ft 482 kts 224°
2026-04-27 02:31 14.13857 -49.86513 38006 ft 482 kts 224°
2026-04-27 02:32 14.09016 -49.91225 38005 ft 482 kts 224°
2026-04-27 02:32 14.04131 -49.95981 38005 ft 482 kts 224°
2026-04-27 02:33 13.99361 -50.00815 38032 ft 478 kts 233°
2026-04-27 02:33 13.95192 -50.06176 38017 ft 480 kts 232°
2026-04-27 02:34 13.91031 -50.11510 38018 ft 481 kts 232°
2026-04-27 02:34 13.86841 -50.16890 38020 ft 481 kts 232°
2026-04-27 02:35 13.82655 -50.22253 38017 ft 480 kts 232°
2026-04-27 02:35 13.78474 -50.27609 38015 ft 480 kts 232°
2026-04-27 02:36 13.74310 -50.32940 38016 ft 480 kts 232°
2026-04-27 02:36 13.70115 -50.38307 38018 ft 481 kts 232°
2026-04-27 02:37 13.65910 -50.43684 38019 ft 482 kts 232°
2026-04-27 02:37 13.61700 -50.49063 38015 ft 482 kts 232°
2026-04-27 02:38 13.57504 -50.54422 38012 ft 480 kts 232°
2026-04-27 02:38 13.53345 -50.59730 38009 ft 479 kts 231°
2026-04-27 02:39 13.49146 -50.65083 38009 ft 481 kts 231°
2026-04-27 02:39 13.44940 -50.70443 38032 ft 482 kts 231°
2026-04-27 02:40 13.40730 -50.75808 38032 ft 481 kts 231°
2026-04-27 02:40 13.36526 -50.81158 38031 ft 481 kts 231°
2026-04-27 02:41 13.32340 -50.86484 38034 ft 483 kts 231°
2026-04-27 02:41 13.28114 -50.91857 38036 ft 483 kts 231°
2026-04-27 02:42 13.23896 -50.97217 38033 ft 481 kts 231°
2026-04-27 02:42 13.19701 -51.02544 38030 ft 479 kts 231°
2026-04-27 02:43 13.15502 -51.07872 38006 ft 480 kts 231°
2026-04-27 02:43 13.11294 -51.13211 38006 ft 482 kts 231°
2026-04-27 02:44 13.07078 -51.18553 38010 ft 482 kts 231°
2026-04-27 02:44 13.02876 -51.23878 38010 ft 483 kts 231°
2026-04-27 02:45 12.98653 -51.29224 38009 ft 482 kts 231°
2026-04-27 02:45 12.94435 -51.34560 38006 ft 480 kts 231°
2026-04-27 02:46 12.90227 -51.39882 38003 ft 481 kts 231°
2026-04-27 02:46 12.86003 -51.45220 38005 ft 482 kts 231°
2026-04-27 02:47 12.81790 -51.50541 38007 ft 483 kts 231°
2026-04-27 02:47 12.77555 -51.55888 38009 ft 483 kts 231°
2026-04-27 02:48 12.73312 -51.61242 38010 ft 484 kts 231°
2026-04-27 02:48 12.69049 -51.66614 38008 ft 485 kts 231°
2026-04-27 02:49 12.64796 -51.71974 38006 ft 484 kts 231°
2026-04-27 02:49 12.60557 -51.77312 38002 ft 483 kts 231°
2026-04-27 02:50 12.56320 -51.82645 37999 ft 483 kts 230°
2026-04-27 02:50 12.52105 -51.87946 38000 ft 484 kts 230°
2026-04-27 02:51 12.47859 -51.93285 38000 ft 484 kts 230°
2026-04-27 02:51 12.43608 -51.98623 38001 ft 484 kts 230°
2026-04-27 02:52 12.39351 -52.03972 37999 ft 483 kts 230°
2026-04-27 02:52 12.35098 -52.09305 37998 ft 483 kts 230°
2026-04-27 02:53 12.30853 -52.14635 37997 ft 484 kts 230°
2026-04-27 02:53 12.26621 -52.19935 37999 ft 484 kts 230°
2026-04-27 02:54 12.22361 -52.25275 38000 ft 485 kts 230°
2026-04-27 02:54 12.18096 -52.30616 38003 ft 485 kts 230°
2026-04-27 02:55 12.13819 -52.35969 38005 ft 485 kts 230°
2026-04-27 02:55 12.09551 -52.41307 37996 ft 485 kts 230°
2026-04-27 02:56 12.05281 -52.46645 37995 ft 484 kts 230°
2026-04-27 02:56 12.01015 -52.51975 37994 ft 484 kts 230°
2026-04-27 02:57 11.96752 -52.57297 37992 ft 483 kts 230°
2026-04-27 02:57 11.92481 -52.62628 37992 ft 486 kts 230°
2026-04-27 02:58 11.88195 -52.67973 37995 ft 486 kts 230°
2026-04-27 02:58 11.83939 -52.73278 37996 ft 486 kts 230°
2026-04-27 02:59 11.79651 -52.78621 37997 ft 486 kts 230°
2026-04-27 02:59 11.75365 -52.83959 37997 ft 486 kts 230°
2026-04-27 03:00 11.71082 -52.89287 37995 ft 485 kts 230°
2026-04-27 03:00 11.66808 -52.94605 37993 ft 484 kts 230°
2026-04-27 03:01 11.62536 -52.99916 37990 ft 484 kts 230°
2026-04-27 03:01 11.58264 -53.05224 37987 ft 483 kts 230°
2026-04-27 03:02 11.53986 -53.10538 37991 ft 485 kts 230°
2026-04-27 03:02 11.49689 -53.15871 37996 ft 487 kts 230°
2026-04-27 03:03 11.43280 -53.23822 37997 ft 485 kts 230°
2026-04-27 03:04 11.38988 -53.29142 37996 ft 485 kts 230°
2026-04-27 03:04 11.34698 -53.34458 37996 ft 485 kts 230°
2026-04-27 03:05 11.30411 -53.39766 37997 ft 485 kts 230°
2026-04-27 03:05 11.26844 -53.44180 37998 ft 486 kts 230°
2026-04-27 03:06 11.21854 -53.50352 37998 ft 485 kts 230°
2026-04-27 03:06 11.18262 -53.54796 37996 ft 485 kts 230°
2026-04-27 03:07 11.13974 -53.60094 37994 ft 484 kts 230°
2026-04-27 03:07 11.09686 -53.65392 37993 ft 485 kts 230°
2026-04-27 03:08 11.05395 -53.70689 37993 ft 485 kts 230°
2026-04-27 03:08 11.01101 -53.75988 37992 ft 485 kts 230°
2026-04-27 03:09 10.96834 -53.81250 37992 ft 485 kts 230°
2026-04-27 03:09 10.92533 -53.86553 37991 ft 485 kts 230°
2026-04-27 03:10 10.88221 -53.91865 37993 ft 487 kts 230°
2026-04-27 03:10 10.83896 -53.97191 37997 ft 488 kts 230°
2026-04-27 03:11 10.79566 -54.02523 37999 ft 489 kts 230°
2026-04-27 03:11 10.75273 -54.07802 37998 ft 486 kts 230°
2026-04-27 03:12 10.70961 -54.13106 37996 ft 486 kts 230°
2026-04-27 03:12 10.66647 -54.18407 37994 ft 486 kts 230°
2026-04-27 03:13 10.62332 -54.23708 37993 ft 487 kts 230°
2026-04-27 03:13 10.58009 -54.29016 37994 ft 488 kts 230°
2026-04-27 03:14 10.53681 -54.34327 37995 ft 488 kts 230°
2026-04-27 03:14 10.49347 -54.39646 37996 ft 488 kts 230°
2026-04-27 03:15 10.45015 -54.44954 37997 ft 488 kts 230°
2026-04-27 03:15 10.40708 -54.50235 37998 ft 488 kts 230°
2026-04-27 03:16 10.36373 -54.55544 37997 ft 488 kts 230°
2026-04-27 03:16 10.32042 -54.60847 37996 ft 487 kts 230°
2026-04-27 03:17 10.27712 -54.66144 37995 ft 487 kts 230°
2026-04-27 03:17 10.23385 -54.71438 37994 ft 487 kts 230°
2026-04-27 03:18 10.19060 -54.76725 37994 ft 487 kts 230°
2026-04-27 03:18 10.14732 -54.82014 37994 ft 487 kts 230°
2026-04-27 03:19 10.10403 -54.87301 37987 ft 487 kts 230°
2026-04-27 03:19 10.06102 -54.92553 37988 ft 486 kts 230°
2026-04-27 03:20 10.01774 -54.97833 37987 ft 486 kts 230°
2026-04-27 03:20 9.97270 -55.02942 37985 ft 487 kts 226°
2026-04-27 03:21 9.92634 -55.08021 37991 ft 491 kts 226°
2026-04-27 03:21 9.87969 -55.13071 37991 ft 490 kts 226°
2026-04-27 03:22 9.83326 -55.18126 37988 ft 489 kts 226°
2026-04-27 03:22 9.78713 -55.23127 37967 ft 488 kts 226°
2026-04-27 03:23 9.74077 -55.28164 37967 ft 488 kts 226°
2026-04-27 03:23 9.69444 -55.33190 37958 ft 487 kts 226°
2026-04-27 03:24 9.64819 -55.38205 37958 ft 488 kts 226°
2026-04-27 03:24 9.60172 -55.43242 37961 ft 489 kts 226°
2026-04-27 03:25 9.55520 -55.48282 37972 ft 490 kts 226°
2026-04-27 03:25 9.50869 -55.53319 37962 ft 489 kts 226°
2026-04-27 03:26 9.46227 -55.58344 37957 ft 488 kts 226°
2026-04-27 03:26 9.41593 -55.63357 37957 ft 487 kts 226°
2026-04-27 03:27 9.36989 -55.68341 37955 ft 488 kts 226°
2026-04-27 03:27 9.32341 -55.73362 37960 ft 489 kts 226°
2026-04-27 03:28 9.27687 -55.78395 37965 ft 490 kts 226°
2026-04-27 03:28 9.23027 -55.83428 37970 ft 491 kts 226°
2026-04-27 03:29 9.18361 -55.88466 37976 ft 490 kts 226°
2026-04-27 03:29 9.13705 -55.93491 37964 ft 488 kts 226°
2026-04-27 03:30 9.09062 -55.98501 37954 ft 487 kts 225°
2026-04-27 03:30 9.04023 -56.03075 37958 ft 488 kts 220°
2026-04-27 03:31 8.98921 -56.07547 37955 ft 487 kts 220°
2026-04-27 03:31 8.93821 -56.12061 37952 ft 487 kts 220°
2026-04-27 03:32 8.88708 -56.16553 37955 ft 486 kts 220°
2026-04-27 03:32 8.83603 -56.21054 37957 ft 487 kts 220°
2026-04-27 03:33 8.78481 -56.25558 37958 ft 488 kts 220°
2026-04-27 03:33 8.73398 -56.30035 37957 ft 488 kts 220°
2026-04-27 03:34 8.68271 -56.34541 37953 ft 488 kts 220°
2026-04-27 03:34 8.63151 -56.39045 37961 ft 488 kts 220°
2026-04-27 03:35 8.58023 -56.43549 37955 ft 488 kts 220°
2026-04-27 03:35 8.52900 -56.48051 37969 ft 488 kts 220°
2026-04-27 03:36 8.47766 -56.52560 37960 ft 489 kts 220°
2026-04-27 03:36 8.42665 -56.57039 37972 ft 489 kts 220°
2026-04-27 03:37 8.37525 -56.61549 37949 ft 489 kts 220°
2026-04-27 03:37 8.32396 -56.66049 37951 ft 489 kts 220°
2026-04-27 03:38 8.27258 -56.70557 37945 ft 488 kts 220°
2026-04-27 03:38 8.22124 -56.75053 37952 ft 488 kts 220°
2026-04-27 03:39 8.16993 -56.79552 37958 ft 489 kts 220°
2026-04-27 03:39 8.11855 -56.84051 37947 ft 489 kts 220°
2026-04-27 03:40 8.06704 -56.88563 37950 ft 490 kts 220°
2026-04-27 03:40 8.01592 -56.93038 37951 ft 489 kts 220°
2026-04-27 03:41 7.96460 -56.97527 37948 ft 489 kts 220°
2026-04-27 03:41 7.91296 -57.02048 37958 ft 491 kts 220°
2026-04-27 03:42 7.86121 -57.06572 37953 ft 492 kts 220°
2026-04-27 03:42 7.80955 -57.11090 37954 ft 491 kts 220°
2026-04-27 03:43 7.75821 -57.15576 37955 ft 491 kts 220°
2026-04-27 03:43 7.70659 -57.20087 37947 ft 491 kts 220°
2026-04-27 03:44 7.65500 -57.24593 37956 ft 491 kts 220°
2026-04-27 03:44 7.60339 -57.29098 37958 ft 490 kts 220°
2026-04-27 03:45 7.55177 -57.33605 37943 ft 490 kts 220°
2026-04-27 03:45 7.50012 -57.38111 37942 ft 493 kts 220°
2026-04-27 03:46 7.44845 -57.42619 37935 ft 488 kts 220°
2026-04-27 03:46 7.39709 -57.47096 37937 ft 489 kts 220°
2026-04-27 03:47 7.34589 -57.51560 37932 ft 490 kts 220°
2026-04-27 03:47 7.29459 -57.56072 37937 ft 489 kts 220°
2026-04-27 03:48 7.24325 -57.60577 37939 ft 489 kts 220°
2026-04-27 03:48 7.19173 -57.65098 37938 ft 492 kts 220°
2026-04-27 03:49 7.14027 -57.69614 37936 ft 491 kts 220°
2026-04-27 03:49 7.08874 -57.74132 37939 ft 491 kts 220°
2026-04-27 03:50 7.03754 -57.78623 37937 ft 491 kts 220°
2026-04-27 03:50 6.98593 -57.83145 37936 ft 492 kts 220°
2026-04-27 03:51 6.93416 -57.87684 37945 ft 494 kts 220°
2026-04-27 03:51 6.88240 -57.92219 37941 ft 492 kts 220°
2026-04-27 03:52 6.83057 -57.96756 37937 ft 493 kts 220°
2026-04-27 03:52 6.77878 -58.01290 37940 ft 494 kts 220°
2026-04-27 03:53 6.72699 -58.05822 37936 ft 492 kts 220°
2026-04-27 03:53 6.68413 -58.09574 37940 ft 492 kts 220°
2026-04-27 03:54 6.62408 -58.14828 37952 ft 491 kts 220°
2026-04-27 03:54 6.58078 -58.18614 37979 ft 493 kts 220°
2026-04-27 03:55 6.52931 -58.23113 37987 ft 493 kts 220°
2026-04-27 03:55 6.47833 -58.27732 37999 ft 493 kts 223°
2026-04-27 03:56 6.42801 -58.32433 37998 ft 494 kts 222°
2026-04-27 03:56 6.37795 -58.37181 37998 ft 493 kts 223°
2026-04-27 03:57 6.32795 -58.41893 37996 ft 492 kts 222°
2026-04-27 03:57 6.27806 -58.46601 37992 ft 491 kts 222°
2026-04-27 03:58 6.22858 -58.51272 37988 ft 491 kts 222°
2026-04-27 03:58 6.17841 -58.55998 37989 ft 492 kts 222°
2026-04-27 03:59 6.12882 -58.60679 37991 ft 492 kts 222°
2026-04-27 03:59 6.07875 -58.65394 37994 ft 493 kts 222°
2026-04-27 04:00 6.02902 -58.70151 37997 ft 493 kts 223°
2026-04-27 04:00 5.97958 -58.74918 37996 ft 492 kts 223°
2026-04-27 04:01 5.92996 -58.79670 37996 ft 493 kts 223°
2026-04-27 04:01 5.88036 -58.84441 37998 ft 493 kts 223°
2026-04-27 04:02 5.83073 -58.89197 37998 ft 493 kts 223°
2026-04-27 04:02 5.78121 -58.93952 37997 ft 493 kts 223°
2026-04-27 04:03 5.73188 -58.98682 37998 ft 493 kts 223°
2026-04-27 04:03 5.68231 -59.03435 37996 ft 491 kts 223°
2026-04-27 04:04 5.63295 -59.08168 37996 ft 491 kts 223°
2026-04-27 04:04 5.58344 -59.12913 37996 ft 491 kts 223°
2026-04-27 04:05 5.53398 -59.17653 37997 ft 492 kts 223°
2026-04-27 04:05 5.48446 -59.22397 37998 ft 492 kts 223°
2026-04-27 04:06 5.43493 -59.27141 37999 ft 492 kts 223°
2026-04-27 04:06 5.38574 -59.31851 37998 ft 490 kts 223°
2026-04-27 04:07 5.31181 -59.38929 37995 ft 489 kts 223°
2026-04-27 04:07 5.26255 -59.43642 37993 ft 489 kts 223°
2026-04-27 04:08 5.21317 -59.48369 37994 ft 490 kts 223°
2026-04-27 04:08 5.16395 -59.53098 37996 ft 490 kts 223°
2026-04-27 04:09 5.11461 -59.57832 37997 ft 490 kts 223°
2026-04-27 04:09 5.06528 -59.62565 37987 ft 491 kts 223°
2026-04-27 04:10 5.01609 -59.67286 37991 ft 493 kts 223°
2026-04-27 04:10 4.96657 -59.72032 37990 ft 491 kts 223°
2026-04-27 04:11 4.91722 -59.76768 37987 ft 490 kts 223°
2026-04-27 04:11 4.86794 -59.81492 37984 ft 489 kts 223°
2026-04-27 04:12 4.81877 -59.86204 37982 ft 489 kts 223°
2026-04-27 04:12 4.76986 -59.90892 37984 ft 490 kts 223°
2026-04-27 04:13 4.72047 -59.95624 37988 ft 491 kts 223°
2026-04-27 04:13 4.67107 -60.00355 37989 ft 490 kts 223°
2026-04-27 04:14 4.62188 -60.05069 37987 ft 488 kts 223°
2026-04-27 04:14 4.57272 -60.09773 37984 ft 488 kts 223°
2026-04-27 04:15 4.52362 -60.14479 37985 ft 489 kts 223°
2026-04-27 04:15 4.47478 -60.19262 37990 ft 491 kts 223°
2026-04-27 04:16 4.42570 -60.24026 37981 ft 490 kts 223°
2026-04-27 04:16 4.37709 -60.28760 37977 ft 489 kts 223°
2026-04-27 04:17 4.32826 -60.33508 37962 ft 489 kts 223°
2026-04-27 04:17 4.27944 -60.38257 37962 ft 489 kts 223°
2026-04-27 04:18 4.23054 -60.43013 37978 ft 490 kts 223°
2026-04-27 04:18 4.18192 -60.47738 37977 ft 490 kts 223°
2026-04-27 04:19 4.13261 -60.52532 37981 ft 490 kts 223°
2026-04-27 04:19 4.08400 -60.57258 37981 ft 490 kts 223°
2026-04-27 04:20 4.03505 -60.62013 37980 ft 489 kts 223°
2026-04-27 04:20 3.98620 -60.66758 37976 ft 489 kts 223°
2026-04-27 04:21 3.93740 -60.71499 37978 ft 488 kts 223°
2026-04-27 04:21 3.88870 -60.76228 37964 ft 487 kts 223°
2026-04-27 04:22 3.84015 -60.80985 37977 ft 489 kts 224°
2026-04-27 04:22 3.79222 -60.85787 37981 ft 490 kts 223°
2026-04-27 04:23 3.74364 -60.90585 37980 ft 491 kts 223°
2026-04-27 04:23 3.69519 -60.95408 37967 ft 490 kts 223°
2026-04-27 04:24 3.64678 -61.00202 37954 ft 489 kts 223°
2026-04-27 04:24 3.59737 -61.04906 37963 ft 489 kts 222°
2026-04-27 04:25 3.54833 -61.09644 37959 ft 491 kts 223°
2026-04-27 04:25 3.49934 -61.14348 37963 ft 492 kts 222°
2026-04-27 04:26 3.45002 -61.19092 37968 ft 490 kts 223°
2026-04-27 04:26 3.40082 -61.23824 37956 ft 490 kts 222°
2026-04-27 04:27 3.35158 -61.28554 37955 ft 490 kts 223°
2026-04-27 04:27 3.30245 -61.33279 37959 ft 490 kts 222°
2026-04-27 04:28 3.25363 -61.37967 37961 ft 490 kts 222°
2026-04-27 04:28 3.20444 -61.42697 37962 ft 490 kts 222°
2026-04-27 04:29 3.15534 -61.47412 37959 ft 489 kts 222°
2026-04-27 04:29 3.10633 -61.52120 37955 ft 488 kts 223°
2026-04-27 04:30 3.05738 -61.56822 37955 ft 486 kts 222°
2026-04-27 04:30 3.00847 -61.61520 37960 ft 488 kts 222°
2026-04-27 04:31 2.95942 -61.66227 37965 ft 488 kts 222°
2026-04-27 04:31 2.91070 -61.70907 37959 ft 488 kts 222°
2026-04-27 04:32 2.86173 -61.75607 37959 ft 487 kts 222°
2026-04-27 04:32 2.81288 -61.80300 37958 ft 486 kts 222°
2026-04-27 04:33 2.76415 -61.84979 37966 ft 485 kts 222°
2026-04-27 04:33 2.71535 -61.89663 37962 ft 486 kts 222°
2026-04-27 04:34 2.66660 -61.94342 37971 ft 486 kts 222°
2026-04-27 04:34 2.61785 -61.99023 37965 ft 485 kts 222°
2026-04-27 04:35 2.56918 -62.03691 37958 ft 484 kts 223°
2026-04-27 04:35 2.52090 -62.08324 37958 ft 483 kts 222°
2026-04-27 04:36 2.47235 -62.12981 37961 ft 484 kts 222°
2026-04-27 04:36 2.42375 -62.17643 37960 ft 485 kts 222°
2026-04-27 04:37 2.37502 -62.22316 37968 ft 485 kts 222°
2026-04-27 04:37 2.32633 -62.26989 37959 ft 485 kts 222°
2026-04-27 04:38 2.27758 -62.31659 37962 ft 485 kts 222°
2026-04-27 04:38 2.22884 -62.36322 37958 ft 485 kts 222°
2026-04-27 04:39 2.18025 -62.40990 37953 ft 485 kts 223°
2026-04-27 04:39 2.13207 -62.45654 37955 ft 484 kts 223°
2026-04-27 04:40 2.08359 -62.50325 37953 ft 483 kts 223°
2026-04-27 04:40 2.03523 -62.54995 37959 ft 483 kts 223°
2026-04-27 04:41 1.98677 -62.59670 37957 ft 484 kts 223°
2026-04-27 04:41 1.94641 -62.63564 37965 ft 486 kts 223°
2026-04-27 04:42 1.89778 -62.68257 37966 ft 485 kts 223°
2026-04-27 04:42 1.84921 -62.72943 37966 ft 485 kts 223°
2026-04-27 04:43 1.80070 -62.77620 37950 ft 484 kts 223°
2026-04-27 04:43 1.75245 -62.82275 37950 ft 484 kts 223°
2026-04-27 04:44 1.70392 -62.86956 37954 ft 484 kts 223°
2026-04-27 04:44 1.65541 -62.91634 37950 ft 485 kts 223°
2026-04-27 04:45 1.60681 -62.96321 37956 ft 485 kts 223°
2026-04-27 04:45 1.55819 -63.01009 37948 ft 485 kts 223°
2026-04-27 04:46 1.50989 -63.05666 37959 ft 486 kts 223°
2026-04-27 04:46 1.46100 -63.10380 37950 ft 484 kts 223°
2026-04-27 04:47 1.41278 -63.15028 37953 ft 484 kts 223°
2026-04-27 04:47 1.36434 -63.19698 37945 ft 484 kts 224°
2026-04-27 04:48 1.31590 -63.24366 37948 ft 483 kts 223°
2026-04-27 04:48 1.26754 -63.29029 37950 ft 483 kts 224°
2026-04-27 04:49 1.21902 -63.33705 37946 ft 485 kts 224°
2026-04-27 04:49 1.17054 -63.38398 37953 ft 486 kts 224°
2026-04-27 04:50 1.12202 -63.43135 37949 ft 486 kts 224°
2026-04-27 04:50 1.07389 -63.47809 37943 ft 484 kts 224°
2026-04-27 04:51 1.02565 -63.52508 37937 ft 484 kts 224°
2026-04-27 04:51 0.97714 -63.57182 37934 ft 484 kts 224°
2026-04-27 04:52 0.92871 -63.61869 37938 ft 485 kts 224°
2026-04-27 04:52 0.88032 -63.66539 37937 ft 487 kts 224°
2026-04-27 04:53 0.83163 -63.71244 37946 ft 486 kts 224°
2026-04-27 04:53 0.78294 -63.75947 37940 ft 486 kts 224°
2026-04-27 04:54 0.73430 -63.80644 37943 ft 486 kts 224°
2026-04-27 04:54 0.68592 -63.85318 37930 ft 487 kts 224°
2026-04-27 04:55 0.63709 -63.90033 37938 ft 488 kts 224°
2026-04-27 04:55 0.58831 -63.94746 37933 ft 487 kts 224°
2026-04-27 04:56 0.53966 -63.99444 37926 ft 485 kts 224°
2026-04-27 04:56 0.49114 -64.04130 37931 ft 485 kts 224°
2026-04-27 04:57 0.44263 -64.08815 37925 ft 484 kts 224°
2026-04-27 04:57 0.39446 -64.13468 37928 ft 484 kts 224°
2026-04-27 04:58 0.34596 -64.18150 37923 ft 484 kts 224°
2026-04-27 04:58 0.29750 -64.22832 37922 ft 485 kts 224°
2026-04-27 04:59 0.24893 -64.27520 37926 ft 485 kts 224°
2026-04-27 04:59 0.20032 -64.32217 37929 ft 486 kts 224°
2026-04-27 05:00 0.15170 -64.36909 37928 ft 486 kts 224°
2026-04-27 05:00 0.10308 -64.41606 37924 ft 486 kts 224°
2026-04-27 05:01 0.05451 -64.46316 37924 ft 487 kts 225°
2026-04-27 05:01 0.00648 -64.51082 37929 ft 486 kts 225°
2026-04-27 05:02 -0.04148 -64.55781 37924 ft 486 kts 225°
2026-04-27 05:03 -0.11364 -64.62895 37924 ft 485 kts 225°
2026-04-27 05:03 -0.16171 -64.67620 37911 ft 484 kts 225°
2026-04-27 05:04 -0.20959 -64.72336 37900 ft 482 kts 225°
2026-04-27 05:04 -0.25750 -64.77048 37904 ft 483 kts 225°
2026-04-27 05:05 -0.30504 -64.81728 37901 ft 483 kts 225°
2026-04-27 05:05 -0.35290 -64.86440 37903 ft 482 kts 225°
2026-04-27 05:06 -0.40060 -64.91135 37901 ft 481 kts 225°
2026-04-27 05:06 -0.44837 -64.95835 37894 ft 482 kts 225°
2026-04-27 05:07 -0.49608 -65.00532 37895 ft 482 kts 225°
2026-04-27 05:07 -0.54377 -65.05226 37897 ft 480 kts 225°
2026-04-27 05:08 -0.59133 -65.09908 37895 ft 479 kts 225°
2026-04-27 05:08 -0.63848 -65.14546 37894 ft 479 kts 225°
2026-04-27 05:09 -0.68601 -65.19228 37894 ft 480 kts 225°
2026-04-27 05:09 -0.73368 -65.23922 37889 ft 480 kts 225°
2026-04-27 05:10 -0.78129 -65.28604 37891 ft 480 kts 225°
2026-04-27 05:10 -0.82875 -65.33278 37890 ft 479 kts 225°
2026-04-27 05:11 -0.87356 -65.38133 37881 ft 479 kts 229°
2026-04-27 05:11 -0.91810 -65.43105 37885 ft 480 kts 229°
2026-04-27 05:12 -0.96239 -65.48089 37891 ft 479 kts 229°
2026-04-27 05:12 -1.00684 -65.53068 37885 ft 479 kts 229°
2026-04-27 05:13 -1.05115 -65.58052 37883 ft 480 kts 229°
2026-04-27 05:13 -1.09553 -65.63035 37885 ft 480 kts 229°
2026-04-27 05:14 -1.13993 -65.68027 37888 ft 480 kts 229°
2026-04-27 05:14 -1.18430 -65.73012 37888 ft 480 kts 229°
2026-04-27 05:15 -1.22867 -65.77996 37890 ft 480 kts 229°
2026-04-27 05:15 -1.27324 -65.83002 37933 ft 488 kts 229°
2026-04-27 05:15 -1.29582 -65.85541 38131 ft 489 kts 229°
2026-04-27 05:16 -1.31842 -65.88083 38387 ft 488 kts 229°
2026-04-27 05:16 -1.34096 -65.90615 38630 ft 487 kts 229°
2026-04-27 05:16 -1.36350 -65.93147 38879 ft 486 kts 229°
2026-04-27 05:16 -1.38589 -65.95665 39121 ft 485 kts 229°
2026-04-27 05:17 -1.40834 -65.98187 39362 ft 484 kts 229°
2026-04-27 05:17 -1.43072 -66.00701 39579 ft 484 kts 229°
2026-04-27 05:17 -1.45307 -66.03212 39848 ft 483 kts 229°
2026-04-27 05:17 -1.47536 -66.05720 40107 ft 481 kts 229°
2026-04-27 05:18 -1.49762 -66.08223 40288 ft 481 kts 229°
2026-04-27 05:18 -1.51988 -66.10724 40496 ft 480 kts 229°
2026-04-27 05:18 -1.54209 -66.13217 40679 ft 480 kts 229°
2026-04-27 05:18 -1.56397 -66.15678 40857 ft 479 kts 229°
2026-04-27 05:19 -1.58612 -66.18173 41048 ft 479 kts 229°
2026-04-27 05:19 -1.60821 -66.20659 41196 ft 479 kts 229°
2026-04-27 05:19 -1.63038 -66.23147 41369 ft 479 kts 229°
2026-04-27 05:19 -1.65251 -66.25633 41574 ft 478 kts 229°
2026-04-27 05:20 -1.67461 -66.28120 41702 ft 478 kts 229°
2026-04-27 05:20 -1.69679 -66.30614 41860 ft 478 kts 228°
2026-04-27 05:20 -1.71892 -66.33103 41877 ft 481 kts 228°
2026-04-27 05:21 -1.76340 -66.38103 41870 ft 479 kts 228°
2026-04-27 05:21 -1.80723 -66.43033 41870 ft 476 kts 228°
2026-04-27 05:22 -1.85117 -66.47974 41871 ft 475 kts 228°
2026-04-27 05:22 -1.89511 -66.52917 41871 ft 475 kts 228°
2026-04-27 05:23 -1.93907 -66.57871 41873 ft 475 kts 229°
2026-04-27 05:23 -1.98287 -66.62821 41872 ft 476 kts 229°
2026-04-27 05:24 -2.02644 -66.67737 41872 ft 475 kts 229°
2026-04-27 05:24 -2.07032 -66.72694 41873 ft 476 kts 229°
2026-04-27 05:25 -2.11429 -66.77662 41877 ft 477 kts 229°
2026-04-27 05:25 -2.15834 -66.82641 41882 ft 479 kts 229°
2026-04-27 05:26 -2.20238 -66.87618 41883 ft 476 kts 229°
2026-04-27 05:26 -2.24613 -66.92563 41877 ft 473 kts 229°
2026-04-27 05:27 -2.28965 -66.97483 41873 ft 473 kts 229°
2026-04-27 05:27 -2.33392 -67.02361 41883 ft 474 kts 227°
2026-04-27 05:28 -2.37821 -67.07252 41888 ft 476 kts 228°
2026-04-27 05:28 -2.42321 -67.12116 41888 ft 475 kts 227°
2026-04-27 05:29 -2.46024 -67.16152 41886 ft 473 kts 228°
2026-04-27 05:29 -2.50496 -67.20972 41889 ft 471 kts 224°
2026-04-27 05:30 -2.55115 -67.25622 41882 ft 471 kts 226°
2026-04-27 05:30 -2.59726 -67.30287 41883 ft 472 kts 225°
2026-04-27 05:31 -2.64359 -67.34952 41885 ft 473 kts 226°
2026-04-27 05:31 -2.68961 -67.39606 41889 ft 473 kts 225°
2026-04-27 05:32 -2.73601 -67.44284 41886 ft 474 kts 225°
2026-04-27 05:32 -2.78236 -67.48982 41889 ft 474 kts 226°
2026-04-27 05:33 -2.82875 -67.53691 41888 ft 475 kts 225°
2026-04-27 05:33 -2.87512 -67.58393 41889 ft 474 kts 226°
2026-04-27 05:34 -2.92138 -67.63089 41887 ft 473 kts 225°
2026-04-27 05:34 -2.96748 -67.67765 41881 ft 470 kts 226°
2026-04-27 05:35 -3.01321 -67.72407 41879 ft 472 kts 225°
2026-04-27 05:35 -3.05952 -67.77107 41885 ft 475 kts 226°
2026-04-27 05:36 -3.10578 -67.81803 41887 ft 472 kts 226°
2026-04-27 05:36 -3.15180 -67.86476 41882 ft 470 kts 226°
2026-04-27 05:37 -3.19773 -67.91140 41879 ft 470 kts 226°
2026-04-27 05:37 -3.24364 -67.95803 41886 ft 471 kts 226°
2026-04-27 05:38 -3.28968 -68.00478 41888 ft 472 kts 226°
2026-04-27 05:38 -3.33574 -68.05158 41891 ft 470 kts 226°
2026-04-27 05:39 -3.38153 -68.09809 41889 ft 469 kts 226°
2026-04-27 05:39 -3.42733 -68.14464 41887 ft 468 kts 226°
2026-04-27 05:40 -3.47276 -68.19080 41885 ft 469 kts 226°
2026-04-27 05:40 -3.51861 -68.23740 41888 ft 469 kts 226°
2026-04-27 05:41 -3.56448 -68.28404 41889 ft 469 kts 226°
2026-04-27 05:41 -3.61036 -68.33068 41889 ft 469 kts 226°
2026-04-27 05:42 -3.65618 -68.37728 41890 ft 469 kts 226°
2026-04-27 05:42 -3.70200 -68.42388 41891 ft 469 kts 226°
2026-04-27 05:43 -3.74779 -68.47046 41891 ft 469 kts 226°
2026-04-27 05:43 -3.79362 -68.51708 41892 ft 470 kts 226°
2026-04-27 05:44 -3.83924 -68.56350 41892 ft 470 kts 226°
2026-04-27 05:44 -3.88507 -68.61014 41892 ft 470 kts 226°
2026-04-27 05:45 -3.93106 -68.65696 41895 ft 472 kts 226°
2026-04-27 05:45 -3.97716 -68.70388 41900 ft 473 kts 226°
2026-04-27 05:46 -4.02323 -68.75081 41899 ft 471 kts 226°
2026-04-27 05:46 -4.06907 -68.79757 41896 ft 470 kts 226°
2026-04-27 05:47 -4.11460 -68.84400 41893 ft 471 kts 226°
2026-04-27 05:47 -4.16059 -68.89092 41896 ft 473 kts 226°
2026-04-27 05:48 -4.20680 -68.93807 41896 ft 474 kts 225°
2026-04-27 05:48 -4.25291 -68.98512 41897 ft 472 kts 225°
2026-04-27 05:49 -4.29886 -69.03203 41894 ft 471 kts 226°
2026-04-27 05:49 -4.34475 -69.07888 41888 ft 469 kts 225°
2026-04-27 05:50 -4.39050 -69.12560 41903 ft 471 kts 225°
2026-04-27 05:50 -4.43618 -69.17224 41909 ft 472 kts 225°
2026-04-27 05:51 -4.48225 -69.21930 41912 ft 472 kts 225°
2026-04-27 05:51 -4.52828 -69.26633 41902 ft 473 kts 225°
2026-04-27 05:52 -4.57443 -69.31349 41908 ft 474 kts 225°
2026-04-27 05:52 -4.62072 -69.36080 41909 ft 474 kts 225°
2026-04-27 05:53 -4.66685 -69.40796 41907 ft 473 kts 225°
2026-04-27 05:53 -4.71252 -69.45465 41905 ft 472 kts 225°
2026-04-27 05:54 -4.75850 -69.50163 41900 ft 470 kts 225°
2026-04-27 05:54 -4.80427 -69.54841 41901 ft 470 kts 225°
2026-04-27 05:55 -4.85018 -69.59535 41903 ft 472 kts 225°
2026-04-27 05:55 -4.89631 -69.64252 41905 ft 474 kts 225°
2026-04-27 05:56 -4.94253 -69.68980 41910 ft 474 kts 225°
2026-04-27 05:56 -4.98857 -69.73694 41908 ft 472 kts 225°
2026-04-27 05:57 -5.03429 -69.78373 41907 ft 472 kts 225°
2026-04-27 05:57 -5.08018 -69.83073 41904 ft 471 kts 225°
2026-04-27 05:58 -5.12607 -69.87773 41901 ft 471 kts 225°
2026-04-27 05:58 -5.17202 -69.92481 41905 ft 474 kts 225°
2026-04-27 05:59 -5.21822 -69.97215 41910 ft 476 kts 225°
2026-04-27 05:59 -5.26449 -70.01957 41908 ft 474 kts 226°
2026-04-27 06:00 -5.33359 -70.09041 41905 ft 473 kts 226°
2026-04-27 06:00 -5.37927 -70.13726 41901 ft 472 kts 226°
2026-04-27 06:01 -5.42509 -70.18426 41898 ft 471 kts 225°
2026-04-27 06:01 -5.47100 -70.23136 41903 ft 473 kts 225°
2026-04-27 06:02 -5.51712 -70.27869 41905 ft 475 kts 225°
2026-04-27 06:02 -5.56346 -70.32625 41909 ft 475 kts 226°
2026-04-27 06:03 -5.60964 -70.37367 41907 ft 474 kts 226°
2026-04-27 06:03 -5.65549 -70.42075 41906 ft 474 kts 226°
2026-04-27 06:04 -5.70163 -70.46815 41906 ft 475 kts 226°
2026-04-27 06:04 -5.74787 -70.51566 41907 ft 475 kts 226°
2026-04-27 06:05 -5.79409 -70.56316 41909 ft 475 kts 226°
2026-04-27 06:05 -5.84033 -70.61069 41910 ft 476 kts 226°
2026-04-27 06:06 -5.88656 -70.65822 41911 ft 476 kts 226°
2026-04-27 06:06 -5.93288 -70.70586 41905 ft 477 kts 226°
2026-04-27 06:07 -5.97899 -70.75330 41895 ft 478 kts 226°
2026-04-27 06:07 -6.02546 -70.80112 41892 ft 476 kts 226°
2026-04-27 06:08 -6.07169 -70.84870 41892 ft 475 kts 226°
2026-04-27 06:08 -6.11784 -70.89621 41889 ft 475 kts 226°
2026-04-27 06:09 -6.16412 -70.94387 41890 ft 477 kts 226°
2026-04-27 06:09 -6.21057 -70.99171 41893 ft 477 kts 226°
2026-04-27 06:10 -6.25692 -71.03947 41896 ft 477 kts 226°
2026-04-27 06:10 -6.30290 -71.08686 41895 ft 475 kts 226°
2026-04-27 06:11 -6.34898 -71.13436 41890 ft 474 kts 226°
2026-04-27 06:11 -6.39503 -71.18184 41888 ft 475 kts 226°
2026-04-27 06:12 -6.44126 -71.22949 41891 ft 477 kts 226°
2026-04-27 06:12 -6.48768 -71.27735 41896 ft 478 kts 226°
2026-04-27 06:13 -6.53388 -71.32500 41898 ft 478 kts 226°
2026-04-27 06:13 -6.58019 -71.37278 41896 ft 476 kts 226°
2026-04-27 06:14 -6.62637 -71.42044 41891 ft 475 kts 226°
2026-04-27 06:14 -6.67240 -71.46800 41887 ft 474 kts 226°
2026-04-27 06:15 -6.71850 -71.51566 41888 ft 476 kts 226°
2026-04-27 06:15 -6.76476 -71.56348 41891 ft 477 kts 226°
2026-04-27 06:16 -6.81114 -71.61145 41895 ft 478 kts 226°
2026-04-27 06:16 -6.84975 -71.65139 41899 ft 479 kts 226°
2026-04-27 06:17 -6.90377 -71.70729 41897 ft 478 kts 226°
2026-04-27 06:17 -6.94251 -71.74739 41895 ft 476 kts 226°
2026-04-27 06:18 -6.98833 -71.79484 41890 ft 474 kts 226°
2026-04-27 06:18 -7.03434 -71.84249 41887 ft 474 kts 226°
2026-04-27 06:19 -7.08039 -71.89020 41888 ft 476 kts 226°
2026-04-27 06:19 -7.12660 -71.93809 41891 ft 477 kts 226°
2026-04-27 06:20 -7.17276 -71.98595 41893 ft 475 kts 226°
2026-04-27 06:20 -7.21880 -72.03368 41890 ft 475 kts 227°
2026-04-27 06:21 -7.26484 -72.08145 41891 ft 476 kts 227°
2026-04-27 06:21 -7.31112 -72.12947 41896 ft 478 kts 227°
2026-04-27 06:22 -7.35747 -72.17758 41899 ft 478 kts 227°
2026-04-27 06:22 -7.40365 -72.22554 41898 ft 476 kts 227°
2026-04-27 06:23 -7.44941 -72.27307 41894 ft 475 kts 227°
2026-04-27 06:23 -7.49537 -72.32082 41889 ft 474 kts 227°
2026-04-27 06:24 -7.54130 -72.36856 41887 ft 475 kts 227°
2026-04-27 06:24 -7.58739 -72.41648 41891 ft 477 kts 227°
2026-04-27 06:25 -7.63362 -72.46456 41897 ft 478 kts 227°
2026-04-27 06:25 -7.67989 -72.51269 41895 ft 478 kts 227°
2026-04-27 06:26 -7.72613 -72.56081 41895 ft 476 kts 227°
2026-04-27 06:26 -7.77191 -72.60847 41891 ft 475 kts 227°
2026-04-27 06:27 -7.81781 -72.65626 41887 ft 474 kts 227°
2026-04-27 06:27 -7.86369 -72.70406 41886 ft 476 kts 227°
2026-04-27 06:28 -7.90990 -72.75220 41890 ft 478 kts 227°
2026-04-27 06:28 -7.95620 -72.80046 41895 ft 478 kts 227°
2026-04-27 06:29 -8.00248 -72.84871 41896 ft 478 kts 227°
2026-04-27 06:29 -8.04875 -72.89698 41897 ft 478 kts 227°
2026-04-27 06:30 -8.09473 -72.94495 41895 ft 478 kts 227°
2026-04-27 06:30 -8.14095 -72.99320 41896 ft 479 kts 227°
2026-04-27 06:31 -8.18734 -73.04163 41897 ft 479 kts 227°
2026-04-27 06:31 -8.23373 -73.09009 41900 ft 481 kts 227°
2026-04-27 06:32 -8.28018 -73.13862 41899 ft 479 kts 227°
2026-04-27 06:32 -8.32643 -73.18697 41894 ft 478 kts 227°
2026-04-27 06:33 -8.37264 -73.23529 41905 ft 478 kts 227°
2026-04-27 06:33 -8.41887 -73.28365 41903 ft 479 kts 227°
2026-04-27 06:34 -8.46523 -73.33216 41914 ft 480 kts 227°
2026-04-27 06:34 -8.51084 -73.38095 41926 ft 481 kts 229°
2026-04-27 06:35 -8.55653 -73.43054 41942 ft 481 kts 228°
2026-04-27 06:35 -8.60235 -73.47974 41940 ft 480 kts 228°
2026-04-27 06:36 -8.64790 -73.52905 41948 ft 479 kts 228°
2026-04-27 06:36 -8.69352 -73.57816 41944 ft 479 kts 228°
2026-04-27 06:37 -8.73919 -73.62734 41944 ft 479 kts 228°
2026-04-27 06:37 -8.78462 -73.67625 41946 ft 480 kts 228°
2026-04-27 06:38 -8.83033 -73.72546 41962 ft 479 kts 228°
2026-04-27 06:38 -8.87603 -73.77466 41962 ft 480 kts 228°
2026-04-27 06:39 -8.92178 -73.82390 41964 ft 479 kts 228°
2026-04-27 06:39 -8.96739 -73.87300 41963 ft 479 kts 228°
2026-04-27 06:40 -9.01278 -73.92186 41960 ft 478 kts 228°
2026-04-27 06:40 -9.05826 -73.97093 41967 ft 477 kts 228°
2026-04-27 06:41 -9.10362 -74.01996 41968 ft 477 kts 228°
2026-04-27 06:41 -9.14896 -74.06916 41967 ft 480 kts 228°
2026-04-27 06:42 -9.19448 -74.11869 41968 ft 480 kts 228°
2026-04-27 06:42 -9.23997 -74.16829 41981 ft 481 kts 228°
2026-04-27 06:43 -9.28543 -74.21796 41983 ft 480 kts 228°
2026-04-27 06:43 -9.32534 -74.26166 41983 ft 480 kts 228°
2026-04-27 06:44 -9.37056 -74.31127 41982 ft 479 kts 228°
2026-04-27 06:44 -9.41564 -74.36093 41998 ft 478 kts 228°
2026-04-27 06:45 -9.46058 -74.41063 41995 ft 479 kts 228°
2026-04-27 06:45 -9.50553 -74.46042 42006 ft 479 kts 228°
2026-04-27 06:46 -9.55047 -74.51030 42011 ft 480 kts 229°
2026-04-27 06:46 -9.59516 -74.56003 42011 ft 480 kts 229°
2026-04-27 06:47 -9.64015 -74.61015 42035 ft 480 kts 229°
2026-04-27 06:47 -9.68516 -74.66040 42044 ft 481 kts 229°
2026-04-27 06:48 -9.73006 -74.71061 42042 ft 480 kts 229°
2026-04-27 06:48 -9.77488 -74.76081 42047 ft 479 kts 229°
2026-04-27 06:49 -9.81961 -74.81099 42060 ft 478 kts 229°
2026-04-27 06:49 -9.86415 -74.86104 42061 ft 479 kts 229°
2026-04-27 06:50 -9.90875 -74.91122 42079 ft 479 kts 229°
2026-04-27 06:50 -9.95314 -74.96124 42127 ft 480 kts 229°
2026-04-27 06:51 -9.99788 -75.01175 42129 ft 482 kts 229°
2026-04-27 06:51 -10.04270 -75.06254 42132 ft 483 kts 229°
2026-04-27 06:52 -10.08735 -75.11331 42131 ft 482 kts 229°
2026-04-27 06:52 -10.13189 -75.16406 42127 ft 481 kts 229°
2026-04-27 06:53 -10.17640 -75.21485 42132 ft 481 kts 229°
2026-04-27 06:53 -10.22078 -75.26559 42132 ft 480 kts 229°
2026-04-27 06:54 -10.26508 -75.31635 42129 ft 480 kts 229°
2026-04-27 06:54 -10.30941 -75.36720 42131 ft 482 kts 229°
2026-04-27 06:55 -10.35393 -75.41828 42145 ft 484 kts 229°
2026-04-27 06:55 -10.39860 -75.46957 42146 ft 485 kts 229°
2026-04-27 06:56 -10.44294 -75.52057 42120 ft 483 kts 229°
2026-04-27 06:56 -10.48728 -75.57168 42156 ft 484 kts 230°
2026-04-27 06:57 -10.53180 -75.62311 42157 ft 484 kts 230°
2026-04-27 06:57 -10.57604 -75.67430 41414 ft 481 kts 230°
2026-04-27 06:58 -10.59818 -75.69995 40673 ft 483 kts 230°
2026-04-27 06:58 -10.64240 -75.75124 38219 ft 475 kts 230°
2026-04-27 06:58 -10.66362 -75.77584 36841 ft 463 kts 230°
2026-04-27 06:59 -10.68507 -75.80068 35431 ft 464 kts 230°
2026-04-27 06:59 -10.70706 -75.82619 34001 ft 490 kts 230°
2026-04-27 06:59 -10.72984 -75.85268 32498 ft 504 kts 230°
2026-04-27 06:59 -10.75273 -75.87934 31405 ft 507 kts 230°
2026-04-27 07:00 -10.77588 -75.90636 30361 ft 506 kts 230°
2026-04-27 07:00 -10.79880 -75.93336 29602 ft 500 kts 230°
2026-04-27 07:00 -10.82122 -75.95990 29216 ft 486 kts 230°
2026-04-27 07:00 -10.84276 -75.98554 29081 ft 467 kts 230°
2026-04-27 07:01 -10.86343 -76.01018 28940 ft 449 kts 230°
2026-04-27 07:01 -10.88331 -76.03386 28770 ft 422 kts 230°
2026-04-27 07:01 -10.90177 -76.05588 28648 ft 400 kts 230°
2026-04-27 07:01 -10.91962 -76.07716 28501 ft 391 kts 230°
2026-04-27 07:02 -10.93733 -76.09832 28267 ft 393 kts 230°
2026-04-27 07:02 -10.96706 -76.13395 27924 ft 402 kts 230°
2026-04-27 07:02 -10.99094 -76.16265 27572 ft 400 kts 230°
2026-04-27 07:03 -11.00301 -76.17720 27402 ft 398 kts 230°
2026-04-27 07:03 -11.02620 -76.20599 27063 ft 395 kts 234°
2026-04-27 07:03 -11.03686 -76.22146 26899 ft 393 kts 238°
2026-04-27 07:03 -11.04941 -76.24591 26648 ft 390 kts 248°
2026-04-27 07:04 -11.05902 -76.27172 26388 ft 389 kts 251°
2026-04-27 07:04 -11.06809 -76.29767 26125 ft 389 kts 249°
2026-04-27 07:04 -11.07840 -76.32269 25866 ft 388 kts 246°
2026-04-27 07:04 -11.08968 -76.34753 25602 ft 386 kts 246°
2026-04-27 07:05 -11.10045 -76.37256 25340 ft 385 kts 248°
2026-04-27 07:05 -11.11069 -76.39770 25081 ft 382 kts 248°
2026-04-27 07:05 -11.12101 -76.42259 24823 ft 381 kts 247°
2026-04-27 07:05 -11.13152 -76.44732 24563 ft 380 kts 246°
2026-04-27 07:06 -11.14197 -76.47196 24298 ft 378 kts 247°
2026-04-27 07:06 -11.15229 -76.49657 24054 ft 377 kts 247°
2026-04-27 07:06 -11.16253 -76.52107 23796 ft 375 kts 247°
2026-04-27 07:06 -11.17280 -76.54548 23546 ft 374 kts 247°
2026-04-27 07:07 -11.18305 -76.56983 23288 ft 373 kts 247°
2026-04-27 07:07 -11.19319 -76.59398 23157 ft 368 kts 247°
2026-04-27 07:07 -11.20320 -76.61786 23151 ft 366 kts 247°
2026-04-27 07:07 -11.21327 -76.64185 23154 ft 370 kts 247°
2026-04-27 07:08 -11.22339 -76.66595 23162 ft 370 kts 247°
2026-04-27 07:08 -11.23341 -76.68985 22923 ft 376 kts 247°
2026-04-27 07:08 -11.24378 -76.71461 22146 ft 383 kts 247°
2026-04-27 07:08 -11.25427 -76.73966 21368 ft 385 kts 247°
2026-04-27 07:09 -11.26477 -76.76469 20589 ft 375 kts 247°
2026-04-27 07:09 -11.27468 -76.78833 19857 ft 353 kts 247°
2026-04-27 07:09 -11.28418 -76.81103 19160 ft 344 kts 247°
2026-04-27 07:09 -11.29359 -76.83350 18497 ft 351 kts 247°
2026-04-27 07:10 -11.30306 -76.85615 17772 ft 339 kts 247°
2026-04-27 07:10 -11.31212 -76.87780 17116 ft 329 kts 247°
2026-04-27 07:10 -11.32129 -76.89969 16450 ft 342 kts 247°
2026-04-27 07:10 -11.33061 -76.92200 15773 ft 342 kts 247°
2026-04-27 07:11 -11.33995 -76.94434 15078 ft 343 kts 247°
2026-04-27 07:11 -11.34917 -76.96640 14404 ft 342 kts 247°
2026-04-27 07:11 -11.35829 -76.98824 13718 ft 323 kts 247°
2026-04-27 07:11 -11.36692 -77.00888 13085 ft 312 kts 247°
2026-04-27 07:12 -11.37537 -77.02912 12474 ft 309 kts 247°
2026-04-27 07:12 -11.38383 -77.04937 11857 ft 316 kts 247°
2026-04-27 07:12 -11.39245 -77.07001 11226 ft 316 kts 247°
2026-04-27 07:12 -11.40102 -77.09054 10598 ft 314 kts 247°
2026-04-27 07:13 -11.40936 -77.11054 9968 ft 295 kts 247°
2026-04-27 07:13 -11.41727 -77.12949 9397 ft 287 kts 247°
2026-04-27 07:13 -11.42520 -77.14852 8789 ft 294 kts 247°
2026-04-27 07:13 -11.43349 -77.16759 8174 ft 293 kts 241°
2026-04-27 07:14 -11.44690 -77.18277 7600 ft 283 kts 218°
2026-04-27 07:14 -11.46227 -77.19457 7028 ft 275 kts 216°
2026-04-27 07:14 -11.47799 -77.20576 6471 ft 280 kts 215°
2026-04-27 07:14 -11.49383 -77.21722 5944 ft 278 kts 216°
2026-04-27 07:15 -11.50925 -77.22868 5581 ft 270 kts 216°
2026-04-27 07:15 -11.52433 -77.23986 5321 ft 267 kts 216°
2026-04-27 07:15 -11.53935 -77.25095 5108 ft 266 kts 216°
2026-04-27 07:15 -11.55432 -77.26199 4916 ft 265 kts 216°
2026-04-27 07:16 -11.56924 -77.27299 4723 ft 263 kts 216°
2026-04-27 07:16 -11.58407 -77.28394 4532 ft 263 kts 216°
2026-04-27 07:16 -11.59884 -77.29484 4346 ft 262 kts 216°
2026-04-27 07:16 -11.61361 -77.30558 4163 ft 256 kts 212°
2026-04-27 07:17 -11.62999 -77.31095 3969 ft 253 kts 182°
2026-04-27 07:17 -11.64700 -77.30782 3807 ft 250 kts 156°
2026-04-27 07:17 -11.66275 -77.30042 3633 ft 249 kts 155°
2026-04-27 07:17 -11.67837 -77.29305 3465 ft 247 kts 155°
2026-04-27 07:18 -11.69398 -77.28565 3291 ft 246 kts 155°
2026-04-27 07:18 -11.70951 -77.27832 3122 ft 247 kts 155°
2026-04-27 07:18 -11.72505 -77.27097 2935 ft 245 kts 155°
2026-04-27 07:18 -11.74051 -77.26366 2776 ft 244 kts 155°
2026-04-27 07:19 -11.75581 -77.25642 2601 ft 237 kts 155°
2026-04-27 07:19 -11.77046 -77.24951 2424 ft 227 kts 155°
2026-04-27 07:19 -11.78450 -77.24289 2258 ft 217 kts 155°
2026-04-27 07:19 -11.79791 -77.23655 2135 ft 206 kts 155°
2026-04-27 07:20 -11.80948 -77.22891 2123 ft 200 kts 142°
2026-04-27 07:20 -11.82092 -77.22085 2117 ft 200 kts 146°
2026-04-27 07:20 -11.83244 -77.21299 2119 ft 199 kts 146°
2026-04-27 07:20 -11.84389 -77.20493 2115 ft 200 kts 145°
2026-04-27 07:21 -11.85530 -77.19687 2116 ft 199 kts 147°
2026-04-27 07:21 -11.86778 -77.19075 2104 ft 199 kts 155°
2026-04-27 07:21 -11.87980 -77.18453 2097 ft 183 kts 154°
2026-04-27 07:21 -11.89045 -77.17922 2085 ft 161 kts 155°
2026-04-27 07:22 -11.90021 -77.17448 2100 ft 150 kts 155°
2026-04-27 07:22 -11.90941 -77.16991 2100 ft 147 kts 155°
2026-04-27 07:22 -11.91871 -77.16530 2001 ft 150 kts 155°
2026-04-27 07:22 -11.92786 -77.16075 1809 ft 146 kts 155°
2026-04-27 07:23 -11.93697 -77.15625 1623 ft 145 kts 155°
2026-04-27 07:23 -11.94601 -77.15178 1427 ft 143 kts 155°
2026-04-27 07:23 -11.95494 -77.14740 1251 ft 142 kts 155°
2026-04-27 07:23 -11.96379 -77.14302 1050 ft 141 kts 155°
2026-04-27 07:24 -11.97267 -77.13863 855 ft 141 kts 155°
2026-04-27 07:24 -11.98149 -77.13425 675 ft 141 kts 155°
2026-04-27 07:24 -11.99034 -77.12988 487 ft 141 kts 155°
2026-04-27 07:24 -11.99904 -77.12558 306 ft 141 kts 155°
2026-04-27 07:25 -12.00785 -77.12119 117 ft 141 kts 155°
2026-04-27 07:25 -12.01571 -77.11733 64 ft 94 kts 154°
2026-04-27 07:25 -12.01923 -77.11559 76 ft 40 kts 154°
2026-04-27 07:25 -12.02130 -77.11456 85 ft 26 kts 154°
2026-04-27 07:26 -12.02217 -77.11374 90 ft 9 kts 118°
2026-04-27 07:26 -12.02248 -77.11325 91 ft 7 kts 129°
2026-04-27 07:26 -12.02276 -77.11291 91 ft 7 kts 129°
2026-04-27 07:26 -12.02315 -77.11241 94 ft 11 kts 126°
2026-04-27 07:27 -12.02367 -77.11163 95 ft 14 kts 123°
2026-04-27 07:27 -12.02442 -77.11098 98 ft 14 kts 145°
2026-04-27 07:27 -12.02494 -77.11020 97 ft 13 kts 108°
2026-04-27 07:27 -12.02480 -77.10937 96 ft 12 kts 67°
2026-04-27 07:28 -12.02466 -77.10905 97 ft 1 kts 65°
2026-04-27 07:28 -12.02461 -77.10894 97 ft 0 kts 64°
2026-04-27 07:28 -12.02457 -77.10886 99 ft 0 kts 64°
2026-04-27 07:28 -12.02456 -77.10883 96 ft 0 kts 64°